Wetterdaten: Donnerstag, 12.05.2022
Datum Zeit Temp. Aussen Temp. o. S. Temp +5cm Feuchte Auss Luftdruck Regen Sonnenschein Regendauer Solar Windben Empfang
12.05.2022 00:00 19,2 C 18,3 C 15,0 C 64 % 1011,1 hPa 0,0 l/m 0 min 0 min 0 W/m 9,7 km/h (2 Bft) 100,00 %
12.05.2022 00:02 19,2 C 18,3 C 15,0 C 64 % 1011,2 hPa 0,0 l/m 0 min 0 min 0 W/m 9,7 km/h (2 Bft) 97,50 %
12.05.2022 00:04 19,2 C 18,3 C 15,0 C 64 % 1011,2 hPa 0,0 l/m 0 min 0 min 0 W/m 6,4 km/h (2 Bft) 100,00 %
12.05.2022 00:07 19,2 C 18,3 C 15,0 C 64 % 1011,3 hPa 0,0 l/m 0 min 0 min 0 W/m 12,9 km/h (3 Bft) 100,00 %
12.05.2022 00:08 19,2 C 18,3 C 15,0 C 65 % 1011,3 hPa 0,0 l/m 0 min 0 min 0 W/m 12,9 km/h (3 Bft) 100,00 %
12.05.2022 00:10 19,1 C 18,3 C 15,0 C 65 % 1011,6 hPa 0,0 l/m 0 min 0 min 0 W/m 19,3 km/h (3 Bft) 100,00 %
12.05.2022 00:12 19,1 C 18,3 C 15,0 C 66 % 1011,6 hPa 0,0 l/m 0 min 0 min 0 W/m 25,7 km/h (4 Bft) 97,83 %
12.05.2022 00:14 19,1 C 18,3 C 15,0 C 68 % 1011,6 hPa 0,0 l/m 0 min 0 min 0 W/m 25,7 km/h (4 Bft) 100,00 %
12.05.2022 00:16 18,9 C 17,8 C 14,4 C 70 % 1011,5 hPa 0,0 l/m 0 min 2 min 0 W/m 32,2 km/h (5 Bft) 97,87 %
12.05.2022 00:18 18,9 C 17,8 C 14,4 C 71 % 1011,6 hPa 0,0 l/m 0 min 2 min 0 W/m 22,5 km/h (4 Bft) 100,00 %
12.05.2022 00:20 18,7 C 17,2 C 14,4 C 72 % 1011,6 hPa 0,0 l/m 0 min 2 min 0 W/m 35,4 km/h (5 Bft) 100,00 %
12.05.2022 00:22 18,4 C 17,2 C 13,9 C 75 % 1011,9 hPa 0,0 l/m 0 min 2 min 0 W/m 22,5 km/h (4 Bft) 100,00 %
12.05.2022 00:24 18,2 C 16,7 C 12,8 C 76 % 1011,9 hPa 0,0 l/m 0 min 2 min 0 W/m 22,5 km/h (4 Bft) 100,00 %
12.05.2022 00:26 18,0 C 16,7 C 12,2 C 79 % 1011,9 hPa 0,0 l/m 0 min 2 min 0 W/m 16,1 km/h (3 Bft) 100,00 %
12.05.2022 00:28 17,7 C 16,1 C 12,2 C 80 % 1012,2 hPa 0,2 l/m 0 min 2 min 0 W/m 22,5 km/h (4 Bft) 100,00 %
12.05.2022 00:30 17,4 C 15,6 C 11,7 C 81 % 1012,1 hPa 0,0 l/m 0 min 2 min 0 W/m 22,5 km/h (4 Bft) 100,00 %
12.05.2022 00:32 17,1 C 15,0 C 11,1 C 83 % 1012,1 hPa 0,6 l/m 0 min 2 min 0 W/m 19,3 km/h (3 Bft) 100,00 %
12.05.2022 00:34 16,8 C 14,4 C 11,1 C 84 % 1012,1 hPa 0,2 l/m 0 min 2 min 0 W/m 19,3 km/h (3 Bft) 100,00 %
12.05.2022 00:36 16,6 C 14,4 C 11,1 C 85 % 1012,1 hPa 0,2 l/m 0 min 2 min 0 W/m 19,3 km/h (3 Bft) 100,00 %
12.05.2022 00:38 16,5 C 14,4 C 11,1 C 86 % 1012,0 hPa 0,0 l/m 0 min 2 min 0 W/m 16,1 km/h (3 Bft) 100,00 %
12.05.2022 00:40 16,3 C 14,4 C 11,1 C 87 % 1012,0 hPa 0,0 l/m 0 min 2 min 0 W/m 6,4 km/h (2 Bft) 100,00 %
12.05.2022 00:42 16,3 C 14,4 C 11,1 C 88 % 1012,1 hPa 0,0 l/m 0 min 2 min 0 W/m 6,4 km/h (2 Bft) 100,00 %
12.05.2022 00:44 16,2 C 13,9 C 10,6 C 89 % 1012,1 hPa 0,2 l/m 0 min 2 min 0 W/m 12,9 km/h (3 Bft) 100,00 %
12.05.2022 00:46 16,2 C 13,9 C 10,6 C 89 % 1012,0 hPa 0,0 l/m 0 min 2 min 0 W/m 6,4 km/h (2 Bft) 100,00 %
12.05.2022 00:48 16,1 C 13,9 C 10,6 C 89 % 1012,1 hPa 0,0 l/m 0 min 2 min 0 W/m 6,4 km/h (2 Bft) 100,00 %
12.05.2022 00:50 16,0 C 13,9 C 11,1 C 90 % 1012,2 hPa 0,0 l/m 0 min 2 min 0 W/m 12,9 km/h (3 Bft) 100,00 %
12.05.2022 00:52 15,9 C 13,9 C 10,6 C 90 % 1012,3 hPa 0,0 l/m 0 min 2 min 0 W/m 16,1 km/h (3 Bft) 100,00 %
12.05.2022 00:54 15,9 C 13,9 C 10,6 C 90 % 1012,4 hPa 0,2 l/m 0 min 2 min 0 W/m 9,7 km/h (2 Bft) 100,00 %
12.05.2022 00:56 15,9 C 13,9 C 10,6 C 91 % 1012,4 hPa 0,2 l/m 0 min 2 min 0 W/m 16,1 km/h (3 Bft) 95,74 %
12.05.2022 00:58 15,9 C 13,9 C 11,1 C 91 % 1012,5 hPa 0,2 l/m 0 min 2 min 0 W/m 9,7 km/h (2 Bft) 100,00 %
12.05.2022 01:00 15,8 C 13,9 C 11,1 C 91 % 1012,4 hPa 0,0 l/m 0 min 2 min 0 W/m 12,9 km/h (3 Bft) 100,00 %
12.05.2022 01:02 15,8 C 13,9 C 10,6 C 91 % 1012,4 hPa 0,2 l/m 0 min 2 min 0 W/m 16,1 km/h (3 Bft) 100,00 %
12.05.2022 01:04 15,7 C 13,9 C 10,6 C 92 % 1012,5 hPa 0,0 l/m 0 min 2 min 0 W/m 9,7 km/h (2 Bft) 97,87 %
12.05.2022 01:06 15,7 C 13,9 C 10,6 C 92 % 1012,5 hPa 0,0 l/m 0 min 2 min 0 W/m 19,3 km/h (3 Bft) 100,00 %
12.05.2022 01:08 15,6 C 13,9 C 11,1 C 92 % 1012,6 hPa 0,0 l/m 0 min 2 min 0 W/m 12,9 km/h (3 Bft) 100,00 %
12.05.2022 01:10 15,6 C 13,9 C 10,6 C 92 % 1012,7 hPa 0,2 l/m 0 min 2 min 0 W/m 9,7 km/h (2 Bft) 95,74 %
12.05.2022 01:12 15,6 C 13,9 C 11,1 C 92 % 1012,6 hPa 0,0 l/m 0 min 2 min 0 W/m 12,9 km/h (3 Bft) 100,00 %
12.05.2022 01:14 15,6 C 14,4 C 10,6 C 93 % 1012,6 hPa 0,0 l/m 0 min 2 min 0 W/m 12,9 km/h (3 Bft) 100,00 %
12.05.2022 01:16 15,6 C 14,4 C 10,6 C 93 % 1012,6 hPa 0,0 l/m 0 min 2 min 0 W/m 9,7 km/h (2 Bft) 97,87 %
12.05.2022 01:18 15,5 C 14,4 C 10,6 C 93 % 1012,5 hPa 0,0 l/m 0 min 0 min 0 W/m 12,9 km/h (3 Bft) 100,00 %
12.05.2022 01:20 15,4 C 14,4 C 10,6 C 93 % 1012,5 hPa 0,0 l/m 0 min 2 min 0 W/m 12,9 km/h (3 Bft) 97,87 %
12.05.2022 01:22 15,5 C 14,4 C 10,6 C 93 % 1012,6 hPa 0,0 l/m 0 min 2 min 0 W/m 6,4 km/h (2 Bft) 97,87 %
12.05.2022 01:24 15,5 C 14,4 C 10,6 C 93 % 1012,6 hPa 0,0 l/m 0 min 2 min 0 W/m 6,4 km/h (2 Bft) 97,83 %
12.05.2022 01:26 15,4 C 14,4 C 10,6 C 93 % 1012,6 hPa 0,0 l/m 0 min 0 min 0 W/m 12,9 km/h (3 Bft) 95,74 %
12.05.2022 01:28 15,4 C 14,4 C 10,6 C 93 % 1012,7 hPa 0,0 l/m 0 min 0 min 0 W/m 6,4 km/h (2 Bft) 97,87 %
12.05.2022 01:30 15,4 C 14,4 C 10,6 C 93 % 1012,7 hPa 0,0 l/m 0 min 0 min 0 W/m 9,7 km/h (2 Bft) 97,87 %
12.05.2022 01:32 15,4 C 14,4 C 10,6 C 94 % 1012,8 hPa 0,0 l/m 0 min 0 min 0 W/m 0,0 km/h (0 Bft) 93,62 %
12.05.2022 01:34 15,4 C 14,4 C 11,1 C 94 % 1012,8 hPa 0,0 l/m 0 min 0 min 0 W/m 9,7 km/h (2 Bft) 93,62 %
12.05.2022 01:36 15,4 C 14,4 C 11,1 C 94 % 1012,9 hPa 0,0 l/m 0 min 0 min 0 W/m 12,9 km/h (3 Bft) 93,48 %
12.05.2022 01:38 15,4 C 14,4 C 10,6 C 94 % 1013,0 hPa 0,0 l/m 0 min 0 min 0 W/m 6,4 km/h (2 Bft) 93,62 %
12.05.2022 01:40 15,4 C 14,4 C 10,6 C 94 % 1013,0 hPa 0,0 l/m 0 min 0 min 0 W/m 6,4 km/h (2 Bft) 93,62 %
12.05.2022 01:42 15,4 C 14,4 C 10,6 C 94 % 1013,0 hPa 0,0 l/m 0 min 0 min 0 W/m 12,9 km/h (3 Bft) 95,74 %
12.05.2022 01:44 15,4 C 14,4 C 11,1 C 94 % 1013,1 hPa 0,0 l/m 0 min 0 min 0 W/m 6,4 km/h (2 Bft) 95,74 %
12.05.2022 01:46 15,5 C 14,4 C 10,6 C 94 % 1013,1 hPa 0,0 l/m 0 min 2 min 0 W/m 6,4 km/h (2 Bft) 93,62 %
12.05.2022 01:48 15,5 C 14,4 C 10,6 C 94 % 1013,1 hPa 0,0 l/m 0 min 0 min 0 W/m 12,9 km/h (3 Bft) 93,48 %
12.05.2022 01:50 15,4 C 14,4 C 11,1 C 94 % 1013,3 hPa 0,0 l/m 0 min 2 min 0 W/m 6,4 km/h (2 Bft) 95,74 %
12.05.2022 01:52 15,5 C 14,4 C 11,1 C 94 % 1013,3 hPa 0,0 l/m 0 min 2 min 0 W/m 6,4 km/h (2 Bft) 95,74 %
12.05.2022 01:54 15,4 C 14,4 C 11,1 C 94 % 1013,3 hPa 0,0 l/m 0 min 0 min 0 W/m 6,4 km/h (2 Bft) 95,74 %
12.05.2022 01:56 15,4 C 14,4 C 11,1 C 94 % 1013,4 hPa 0,0 l/m 0 min 0 min 0 W/m 9,7 km/h (2 Bft) 95,74 %
12.05.2022 01:58 15,4 C 14,4 C 11,1 C 94 % 1013,4 hPa 0,0 l/m 0 min 2 min 0 W/m 12,9 km/h (3 Bft) 95,74 %
12.05.2022 02:00 15,4 C 14,4 C 10,6 C 94 % 1013,4 hPa 0,0 l/m 0 min 2 min 0 W/m 6,4 km/h (2 Bft) 93,48 %
12.05.2022 02:02 15,4 C 14,4 C 11,1 C 94 % 1013,5 hPa 0,0 l/m 0 min 2 min 0 W/m 16,1 km/h (3 Bft) 95,74 %
12.05.2022 02:04 15,5 C 14,4 C 11,1 C 94 % 1013,5 hPa 0,2 l/m 0 min 2 min 0 W/m 3,2 km/h (1 Bft) 93,62 %
12.05.2022 02:06 15,5 C 14,4 C 10,6 C 95 % 1013,5 hPa 0,0 l/m 0 min 0 min 0 W/m 6,4 km/h (2 Bft) 91,49 %
12.05.2022 02:08 15,5 C 14,4 C 11,1 C 94 % 1013,6 hPa 0,0 l/m 0 min 0 min 0 W/m 6,4 km/h (2 Bft) 95,74 %
12.05.2022 02:10 15,5 C 14,4 C 11,1 C 95 % 1013,6 hPa 0,0 l/m 0 min 0 min 0 W/m 6,4 km/h (2 Bft) 95,74 %
12.05.2022 02:12 15,5 C 14,4 C 10,6 C 95 % 1013,6 hPa 0,0 l/m 0 min 0 min 0 W/m 6,4 km/h (2 Bft) 95,65 %
12.05.2022 02:14 15,4 C 14,4 C 10,6 C 95 % 1013,6 hPa 0,0 l/m 0 min 0 min 0 W/m 12,9 km/h (3 Bft) 93,62 %
12.05.2022 02:16 15,4 C 14,4 C 10,6 C 95 % 1013,6 hPa 0,0 l/m 0 min 0 min 0 W/m 6,4 km/h (2 Bft) 95,74 %
12.05.2022 02:18 15,4 C 14,4 C 10,6 C 95 % 1013,6 hPa 0,0 l/m 0 min 0 min 0 W/m 6,4 km/h (2 Bft) 95,74 %
12.05.2022 02:20 15,3 C 14,4 C 11,1 C 95 % 1013,6 hPa 0,0 l/m 0 min 0 min 0 W/m 6,4 km/h (2 Bft) 95,74 %
12.05.2022 02:22 15,3 C 14,4 C 10,6 C 95 % 1013,7 hPa 0,0 l/m 0 min 0 min 0 W/m 12,9 km/h (3 Bft) 97,87 %
12.05.2022 02:24 15,3 C 14,4 C 10,6 C 95 % 1013,7 hPa 0,0 l/m 0 min 0 min 0 W/m 6,4 km/h (2 Bft) 97,83 %
12.05.2022 02:26 15,3 C 14,4 C 10,6 C 95 % 1013,6 hPa 0,0 l/m 0 min 0 min 0 W/m 6,4 km/h (2 Bft) 97,87 %
12.05.2022 02:28 15,3 C 14,4 C 10,6 C 95 % 1013,7 hPa 0,0 l/m 0 min 0 min 0 W/m 16,1 km/h (3 Bft) 97,87 %
12.05.2022 02:30 15,2 C 14,4 C 10,6 C 94 % 1013,7 hPa 0,0 l/m 0 min 0 min 0 W/m 9,7 km/h (2 Bft) 95,74 %
12.05.2022 02:32 15,1 C 14,4 C 10,6 C 94 % 1013,7 hPa 0,0 l/m 0 min 0 min 0 W/m 19,3 km/h (3 Bft) 97,87 %
12.05.2022 02:34 15,1 C 14,4 C 10,0 C 94 % 1013,8 hPa 0,0 l/m 0 min 0 min 0 W/m 12,9 km/h (3 Bft) 97,83 %
12.05.2022 02:36 14,9 C 14,4 C 10,0 C 93 % 1013,8 hPa 0,0 l/m 0 min 0 min 0 W/m 16,1 km/h (3 Bft) 97,87 %
12.05.2022 02:38 14,9 C 14,4 C 10,0 C 93 % 1013,8 hPa 0,0 l/m 0 min 0 min 0 W/m 19,3 km/h (3 Bft) 97,87 %
12.05.2022 02:40 14,8 C 13,9 C 10,0 C 93 % 1013,9 hPa 0,0 l/m 0 min 0 min 0 W/m 12,9 km/h (3 Bft) 100,00 %
12.05.2022 02:42 14,8 C 13,9 C 10,0 C 92 % 1013,9 hPa 0,0 l/m 0 min 0 min 0 W/m 16,1 km/h (3 Bft) 100,00 %
12.05.2022 02:44 14,7 C 13,9 C 10,0 C 92 % 1014,0 hPa 0,0 l/m 0 min 0 min 0 W/m 12,9 km/h (3 Bft) 100,00 %
12.05.2022 02:46 14,7 C 13,9 C 9,4 C 92 % 1014,0 hPa 0,0 l/m 0 min 0 min 0 W/m 16,1 km/h (3 Bft) 100,00 %
12.05.2022 02:48 14,7 C 13,9 C 9,4 C 92 % 1014,0 hPa 0,0 l/m 0 min 0 min 0 W/m 12,9 km/h (3 Bft) 97,83 %
12.05.2022 02:50 14,6 C 13,9 C 9,4 C 92 % 1014,1 hPa 0,0 l/m 0 min 0 min 0 W/m 12,9 km/h (3 Bft) 100,00 %
12.05.2022 02:52 14,6 C 13,3 C 9,4 C 91 % 1014,1 hPa 0,0 l/m 0 min 0 min 0 W/m 9,7 km/h (2 Bft) 100,00 %
12.05.2022 02:54 14,5 C 13,3 C 9,4 C 91 % 1014,1 hPa 0,0 l/m 0 min 0 min 0 W/m 12,9 km/h (3 Bft) 100,00 %
12.05.2022 02:56 14,4 C 13,3 C 9,4 C 91 % 1014,2 hPa 0,0 l/m 0 min 0 min 0 W/m 12,9 km/h (3 Bft) 97,87 %
12.05.2022 02:58 14,3 C 13,3 C 9,4 C 91 % 1014,2 hPa 0,0 l/m 0 min 0 min 0 W/m 12,9 km/h (3 Bft) 100,00 %
12.05.2022 03:00 14,3 C 13,3 C 9,4 C 91 % 1014,3 hPa 0,0 l/m 0 min 0 min 0 W/m 9,7 km/h (2 Bft) 97,83 %
12.05.2022 03:02 14,3 C 13,3 C 9,4 C 91 % 1014,3 hPa 0,0 l/m 0 min 0 min 0 W/m 9,7 km/h (2 Bft) 100,00 %
12.05.2022 03:04 14,3 C 13,3 C 8,9 C 91 % 1014,4 hPa 0,0 l/m 0 min 0 min 0 W/m 9,7 km/h (2 Bft) 100,00 %
12.05.2022 03:06 14,2 C 13,3 C 8,9 C 91 % 1014,3 hPa 0,0 l/m 0 min 0 min 0 W/m 19,3 km/h (3 Bft) 97,87 %
12.05.2022 03:08 14,1 C 13,3 C 8,9 C 90 % 1014,3 hPa 0,0 l/m 0 min 0 min 0 W/m 12,9 km/h (3 Bft) 97,37 %
12.05.2022 03:10 14,1 C 13,3 C 8,9 C 90 % 1014,3 hPa 0,0 l/m 0 min 0 min 0 W/m 9,7 km/h (2 Bft) 97,87 %
12.05.2022 03:12 14,1 C 13,3 C 8,9 C 91 % 1014,4 hPa 0,0 l/m 0 min 0 min 0 W/m 9,7 km/h (2 Bft) 97,87 %
12.05.2022 03:14 14,0 C 12,8 C 8,9 C 91 % 1014,4 hPa 0,0 l/m 0 min 0 min 0 W/m 6,4 km/h (2 Bft) 97,83 %
12.05.2022 03:16 14,0 C 12,8 C 8,9 C 91 % 1014,4 hPa 0,0 l/m 0 min 0 min 0 W/m 6,4 km/h (2 Bft) 54,55 %
12.05.2022 03:18 13,9 C 12,8 C 8,9 C 91 % 1014,5 hPa 0,0 l/m 0 min 0 min 0 W/m 3,2 km/h (1 Bft) 97,87 %
12.05.2022 03:20 13,9 C 12,8 C 8,9 C 91 % 1014,5 hPa 0,0 l/m 0 min 0 min 0 W/m 6,4 km/h (2 Bft) 97,87 %
12.05.2022 03:22 13,9 C 12,8 C 8,9 C 91 % 1014,5 hPa 0,0 l/m 0 min 0 min 0 W/m 6,4 km/h (2 Bft) 97,87 %
12.05.2022 03:24 13,9 C 12,8 C 8,9 C 91 % 1014,6 hPa 0,0 l/m 0 min 0 min 0 W/m 6,4 km/h (2 Bft) 97,87 %
12.05.2022 03:26 13,9 C 12,8 C 8,9 C 91 % 1014,6 hPa 0,0 l/m 0 min 0 min 0 W/m 9,7 km/h (2 Bft) 95,65 %
12.05.2022 03:28 13,8 C 12,8 C 8,9 C 91 % 1014,7 hPa 0,0 l/m 0 min 0 min 0 W/m 3,2 km/h (1 Bft) 97,87 %
12.05.2022 03:30 13,8 C 12,8 C 8,9 C 91 % 1014,6 hPa 0,0 l/m 0 min 0 min 0 W/m 3,2 km/h (1 Bft) 97,87 %
12.05.2022 03:32 13,8 C 12,8 C 8,9 C 91 % 1014,7 hPa 0,0 l/m 0 min 0 min 0 W/m 6,4 km/h (2 Bft) 97,87 %
12.05.2022 03:34 13,8 C 12,8 C 8,9 C 91 % 1014,7 hPa 0,0 l/m 0 min 0 min 0 W/m 6,4 km/h (2 Bft) 100,00 %
12.05.2022 03:36 13,8 C 12,8 C 8,9 C 91 % 1014,7 hPa 0,0 l/m 0 min 0 min 0 W/m 3,2 km/h (1 Bft) 100,00 %
12.05.2022 03:38 13,7 C 12,8 C 8,9 C 91 % 1014,8 hPa 0,0 l/m 0 min 0 min 0 W/m 9,7 km/h (2 Bft) 100,00 %
12.05.2022 03:40 13,7 C 12,8 C 8,9 C 91 % 1014,8 hPa 0,0 l/m 0 min 0 min 0 W/m 6,4 km/h (2 Bft) 100,00 %
12.05.2022 03:42 13,7 C 12,8 C 8,9 C 91 % 1014,9 hPa 0,0 l/m 0 min 0 min 0 W/m 3,2 km/h (1 Bft) 97,87 %
12.05.2022 03:44 13,7 C 12,8 C 8,9 C 91 % 1014,9 hPa 0,0 l/m 0 min 0 min 0 W/m 3,2 km/h (1 Bft) 100,00 %
12.05.2022 03:46 13,7 C 12,8 C 8,9 C 91 % 1014,9 hPa 0,0 l/m 0 min 0 min 0 W/m 6,4 km/h (2 Bft) 97,87 %
12.05.2022 03:48 13,7 C 12,8 C 8,9 C 91 % 1014,9 hPa 0,0 l/m 0 min 0 min 0 W/m 3,2 km/h (1 Bft) 100,00 %
12.05.2022 03:50 13,6 C 12,2 C 8,9 C 91 % 1015,0 hPa 0,0 l/m 0 min 0 min 0 W/m 6,4 km/h (2 Bft) 97,87 %
12.05.2022 03:52 13,6 C 12,2 C 8,9 C 91 % 1015,1 hPa 0,0 l/m 0 min 0 min 0 W/m 9,7 km/h (2 Bft) 97,87 %
12.05.2022 03:54 13,4 C 12,2 C 8,9 C 91 % 1015,2 hPa 0,0 l/m 0 min 0 min 0 W/m 9,7 km/h (2 Bft) 100,00 %
12.05.2022 03:56 13,4 C 12,2 C 8,9 C 90 % 1015,2 hPa 0,0 l/m 0 min 0 min 0 W/m 9,7 km/h (2 Bft) 100,00 %
12.05.2022 03:58 13,3 C 12,2 C 8,9 C 90 % 1015,2 hPa 0,0 l/m 0 min 0 min 0 W/m 6,4 km/h (2 Bft) 100,00 %
12.05.2022 04:00 13,2 C 12,2 C 8,9 C 90 % 1015,2 hPa 0,0 l/m 0 min 0 min 0 W/m 9,7 km/h (2 Bft) 100,00 %
12.05.2022 04:02 13,2 C 12,2 C 8,9 C 90 % 1015,3 hPa 0,0 l/m 0 min 0 min 0 W/m 6,4 km/h (2 Bft) 88,89 %
12.05.2022 04:04 13,1 C 12,2 C 8,9 C 90 % 1015,4 hPa 0,0 l/m 0 min 0 min 0 W/m 16,1 km/h (3 Bft) 100,00 %
12.05.2022 04:06 13,1 C 12,2 C 8,9 C 90 % 1015,4 hPa 0,0 l/m 0 min 0 min 0 W/m 6,4 km/h (2 Bft) 98,31 %
12.05.2022 04:08 13,0 C 12,2 C 8,9 C 89 % 1015,4 hPa 0,0 l/m 0 min 0 min 0 W/m 6,4 km/h (2 Bft) 97,14 %
12.05.2022 04:10 13,0 C 12,2 C 8,9 C 89 % 1015,4 hPa 0,0 l/m 0 min 0 min 0 W/m 9,7 km/h (2 Bft) 100,00 %
12.05.2022 04:12 12,9 C 12,2 C 8,9 C 89 % 1015,4 hPa 0,0 l/m 0 min 0 min 0 W/m 12,9 km/h (3 Bft) 97,83 %
12.05.2022 04:14 12,9 C 12,2 C 8,3 C 89 % 1015,5 hPa 0,0 l/m 0 min 0 min 0 W/m 9,7 km/h (2 Bft) 95,74 %
12.05.2022 04:16 12,9 C 12,2 C 8,3 C 89 % 1015,6 hPa 0,0 l/m 0 min 0 min 0 W/m 9,7 km/h (2 Bft) 100,00 %
12.05.2022 04:18 12,8 C 12,2 C 8,3 C 89 % 1015,6 hPa 0,0 l/m 0 min 0 min 0 W/m 6,4 km/h (2 Bft) 100,00 %
12.05.2022 04:20 12,8 C 12,2 C 8,3 C 89 % 1015,7 hPa 0,0 l/m 0 min 0 min 0 W/m 3,2 km/h (1 Bft) 97,87 %
12.05.2022 04:22 12,8 C 11,7 C 8,3 C 89 % 1015,7 hPa 0,0 l/m 0 min 0 min 0 W/m 6,4 km/h (2 Bft) 100,00 %
12.05.2022 04:24 12,8 C 11,7 C 8,3 C 89 % 1015,7 hPa 0,0 l/m 0 min 0 min 0 W/m 6,4 km/h (2 Bft) 97,83 %
12.05.2022 04:26 12,8 C 11,7 C 8,3 C 89 % 1015,7 hPa 0,0 l/m 0 min 0 min 0 W/m 6,4 km/h (2 Bft) 95,74 %
12.05.2022 04:28 12,7 C 11,7 C 8,3 C 89 % 1015,7 hPa 0,0 l/m 0 min 0 min 0 W/m 3,2 km/h (1 Bft) 97,87 %
12.05.2022 04:30 12,7 C 11,7 C 8,3 C 89 % 1015,7 hPa 0,0 l/m 0 min 0 min 0 W/m 3,2 km/h (1 Bft) 97,87 %
12.05.2022 04:32 12,7 C 11,7 C 8,3 C 89 % 1015,7 hPa 0,0 l/m 0 min 0 min 0 W/m 6,4 km/h (2 Bft) 97,87 %
12.05.2022 04:34 12,7 C 11,7 C 8,3 C 89 % 1015,8 hPa 0,0 l/m 0 min 0 min 0 W/m 3,2 km/h (1 Bft) 97,87 %
12.05.2022 04:36 12,7 C 11,7 C 7,8 C 89 % 1015,8 hPa 0,0 l/m 0 min 0 min 0 W/m 3,2 km/h (1 Bft) 97,83 %
12.05.2022 04:38 12,7 C 11,7 C 7,8 C 89 % 1015,8 hPa 0,0 l/m 0 min 0 min 0 W/m 3,2 km/h (1 Bft) 95,74 %
12.05.2022 04:40 12,6 C 11,7 C 7,8 C 89 % 1015,9 hPa 0,0 l/m 0 min 0 min 0 W/m 3,2 km/h (1 Bft) 97,87 %
12.05.2022 04:42 12,6 C 11,7 C 7,8 C 89 % 1015,9 hPa 0,0 l/m 0 min 0 min 0 W/m 3,2 km/h (1 Bft) 95,74 %
12.05.2022 04:44 12,6 C 11,7 C 7,8 C 89 % 1015,9 hPa 0,0 l/m 0 min 0 min 0 W/m 0,0 km/h (0 Bft) 95,74 %
12.05.2022 04:46 12,6 C 11,1 C 7,8 C 89 % 1015,9 hPa 0,0 l/m 0 min 0 min 0 W/m 0,0 km/h (0 Bft) 95,74 %
12.05.2022 04:48 12,6 C 11,1 C 7,8 C 89 % 1016,0 hPa 0,0 l/m 0 min 0 min 0 W/m 3,2 km/h (1 Bft) 93,48 %
12.05.2022 04:50 12,6 C 11,1 C 7,8 C 89 % 1016,0 hPa 0,0 l/m 0 min 0 min 0 W/m 0,0 km/h (0 Bft) 97,87 %
12.05.2022 04:52 12,5 C 11,1 C 7,8 C 89 % 1015,9 hPa 0,0 l/m 0 min 0 min 0 W/m 0,0 km/h (0 Bft) 97,87 %
12.05.2022 04:54 12,5 C 11,1 C 7,8 C 89 % 1016,0 hPa 0,0 l/m 0 min 0 min 0 W/m 0,0 km/h (0 Bft) 95,74 %
12.05.2022 04:56 12,4 C 11,1 C 7,8 C 89 % 1016,0 hPa 0,0 l/m 0 min 0 min 0 W/m 0,0 km/h (0 Bft) 91,49 %
12.05.2022 04:58 12,4 C 11,1 C 7,8 C 90 % 1016,0 hPa 0,0 l/m 0 min 0 min 0 W/m 0,0 km/h (0 Bft) 95,74 %
12.05.2022 05:00 12,3 C 11,1 C 7,8 C 90 % 1016,1 hPa 0,0 l/m 0 min 0 min 0 W/m 0,0 km/h (0 Bft) 93,48 %
12.05.2022 05:02 12,3 C 11,1 C 7,8 C 90 % 1016,1 hPa 0,0 l/m 0 min 0 min 0 W/m 0,0 km/h (0 Bft) 97,87 %
12.05.2022 05:04 12,3 C 11,1 C 7,8 C 90 % 1016,1 hPa 0,0 l/m 0 min 0 min 0 W/m 3,2 km/h (1 Bft) 97,87 %
12.05.2022 05:06 12,3 C 11,1 C 7,8 C 90 % 1016,1 hPa 0,0 l/m 0 min 0 min 0 W/m 0,0 km/h (0 Bft) 95,74 %
12.05.2022 05:08 12,2 C 11,1 C 7,8 C 90 % 1016,1 hPa 0,0 l/m 0 min 0 min 0 W/m 0,0 km/h (0 Bft) 95,74 %
12.05.2022 05:10 12,2 C 11,1 C 7,8 C 90 % 1016,2 hPa 0,0 l/m 0 min 0 min 0 W/m 0,0 km/h (0 Bft) 97,87 %
12.05.2022 05:12 12,2 C 10,6 C 7,8 C 90 % 1016,2 hPa 0,0 l/m 0 min 0 min 0 W/m 0,0 km/h (0 Bft) 95,65 %
12.05.2022 05:14 12,2 C 10,6 C 7,2 C 90 % 1016,2 hPa 0,0 l/m 0 min 0 min 0 W/m 0,0 km/h (0 Bft) 97,87 %
12.05.2022 05:16 12,1 C 10,6 C 7,2 C 90 % 1016,2 hPa 0,0 l/m 0 min 0 min 0 W/m 0,0 km/h (0 Bft) 97,87 %
12.05.2022 05:18 12,1 C 10,6 C 7,2 C 90 % 1016,2 hPa 0,0 l/m 0 min 0 min 0 W/m 0,0 km/h (0 Bft) 100,00 %
12.05.2022 05:20 12,1 C 10,6 C 7,2 C 90 % 1016,2 hPa 0,0 l/m 0 min 0 min 0 W/m 0,0 km/h (0 Bft) 97,87 %
12.05.2022 05:22 12,0 C 10,6 C 7,2 C 90 % 1016,3 hPa 0,0 l/m 0 min 0 min 0 W/m 0,0 km/h (0 Bft) 97,87 %
12.05.2022 05:24 11,9 C 10,6 C 7,2 C 90 % 1016,4 hPa 0,0 l/m 0 min 0 min 0 W/m 0,0 km/h (0 Bft) 97,83 %
12.05.2022 05:26 11,9 C 10,6 C 7,2 C 90 % 1016,3 hPa 0,0 l/m 0 min 0 min 0 W/m 0,0 km/h (0 Bft) 95,74 %
12.05.2022 05:28 11,9 C 10,6 C 7,2 C 90 % 1016,4 hPa 0,0 l/m 0 min 0 min 0 W/m 0,0 km/h (0 Bft) 97,87 %
12.05.2022 05:30 11,9 C 10,6 C 7,2 C 91 % 1016,4 hPa 0,0 l/m 0 min 0 min 0 W/m 3,2 km/h (1 Bft) 93,62 %
12.05.2022 05:32 11,8 C 10,6 C 7,2 C 91 % 1016,4 hPa 0,0 l/m 0 min 0 min 0 W/m 0,0 km/h (0 Bft) 95,74 %
12.05.2022 05:34 11,8 C 10,6 C 7,2 C 91 % 1016,4 hPa 0,0 l/m 0 min 0 min 0 W/m 0,0 km/h (0 Bft) 97,87 %
12.05.2022 05:36 11,8 C 10,6 C 7,2 C 91 % 1016,4 hPa 0,0 l/m 0 min 0 min 0 W/m 0,0 km/h (0 Bft) 95,65 %
12.05.2022 05:38 11,8 C 10,6 C 7,2 C 91 % 1016,4 hPa 0,0 l/m 0 min 0 min 0 W/m 0,0 km/h (0 Bft) 97,87 %
12.05.2022 05:40 11,8 C 10,6 C 7,2 C 91 % 1016,4 hPa 0,0 l/m 0 min 0 min 0 W/m 0,0 km/h (0 Bft) 97,87 %
12.05.2022 05:42 11,7 C 10,6 C 7,2 C 91 % 1016,5 hPa 0,0 l/m 0 min 0 min 0 W/m 0,0 km/h (0 Bft) 97,87 %
12.05.2022 05:44 11,7 C 10,6 C 7,2 C 91 % 1016,4 hPa 0,0 l/m 0 min 0 min 0 W/m 0,0 km/h (0 Bft) 97,87 %
12.05.2022 05:46 11,7 C 10,6 C 7,2 C 91 % 1016,4 hPa 0,0 l/m 0 min 0 min 0 W/m 0,0 km/h (0 Bft) 95,65 %
12.05.2022 05:48 11,7 C 10,6 C 7,2 C 91 % 1016,5 hPa 0,0 l/m 0 min 0 min 0 W/m 0,0 km/h (0 Bft) 97,87 %
12.05.2022 05:50 11,6 C 10,6 C 7,2 C 91 % 1016,5 hPa 0,0 l/m 0 min 0 min 4 W/m 0,0 km/h (0 Bft) 97,87 %
12.05.2022 05:52 11,6 C 10,6 C 7,2 C 91 % 1016,6 hPa 0,0 l/m 0 min 0 min 5 W/m 0,0 km/h (0 Bft) 97,87 %
12.05.2022 05:54 11,6 C 10,6 C 7,2 C 91 % 1016,6 hPa 0,0 l/m 0 min 0 min 5 W/m 0,0 km/h (0 Bft) 97,87 %
12.05.2022 05:56 11,6 C 10,6 C 7,2 C 91 % 1016,6 hPa 0,0 l/m 0 min 0 min 7 W/m 3,2 km/h (1 Bft) 97,87 %
12.05.2022 05:58 11,6 C 10,6 C 7,2 C 92 % 1016,6 hPa 0,0 l/m 0 min 0 min 7 W/m 0,0 km/h (0 Bft) 97,83 %
12.05.2022 06:00 11,5 C 10,6 C 7,2 C 92 % 1016,7 hPa 0,0 l/m 0 min 0 min 9 W/m 0,0 km/h (0 Bft) 97,87 %
12.05.2022 06:02 11,5 C 10,6 C 7,2 C 92 % 1016,7 hPa 0,0 l/m 0 min 0 min 9 W/m 0,0 km/h (0 Bft) 97,87 %
12.05.2022 06:04 11,5 C 10,6 C 7,2 C 92 % 1016,8 hPa 0,0 l/m 0 min 0 min 11 W/m 0,0 km/h (0 Bft) 95,74 %
12.05.2022 06:08 11,4 C 10,6 C 7,2 C 92 % 1016,8 hPa 0,0 l/m 0 min 0 min 11 W/m 0,0 km/h (0 Bft) 98,04 %
12.05.2022 06:10 11,4 C 10,6 C 7,2 C 92 % 1016,8 hPa 0,0 l/m 0 min 0 min 12 W/m 0,0 km/h (0 Bft) 95,74 %
12.05.2022 06:12 11,4 C 10,6 C 7,2 C 92 % 1016,9 hPa 0,0 l/m 0 min 0 min 14 W/m 0,0 km/h (0 Bft) 95,74 %
12.05.2022 06:14 11,4 C 10,6 C 7,2 C 92 % 1017,0 hPa 0,0 l/m 0 min 0 min 14 W/m 0,0 km/h (0 Bft) 97,87 %
12.05.2022 06:16 11,4 C 10,6 C 7,2 C 92 % 1017,0 hPa 0,0 l/m 0 min 0 min 16 W/m 0,0 km/h (0 Bft) 95,74 %
12.05.2022 06:18 11,4 C 10,6 C 7,2 C 92 % 1017,0 hPa 0,0 l/m 0 min 0 min 18 W/m 0,0 km/h (0 Bft) 97,87 %
12.05.2022 06:20 11,4 C 10,6 C 7,2 C 92 % 1017,0 hPa 0,0 l/m 0 min 0 min 19 W/m 0,0 km/h (0 Bft) 97,83 %
12.05.2022 06:22 11,4 C 10,6 C 7,2 C 92 % 1017,1 hPa 0,0 l/m 0 min 0 min 20 W/m 0,0 km/h (0 Bft) 93,62 %
12.05.2022 06:24 11,4 C 10,6 C 7,2 C 93 % 1017,1 hPa 0,0 l/m 0 min 0 min 21 W/m 0,0 km/h (0 Bft) 97,87 %
12.05.2022 06:26 11,4 C 10,6 C 7,2 C 93 % 1017,0 hPa 0,0 l/m 0 min 0 min 23 W/m 0,0 km/h (0 Bft) 97,87 %
12.05.2022 06:28 11,4 C 10,6 C 7,2 C 93 % 1017,0 hPa 0,0 l/m 0 min 0 min 23 W/m 0,0 km/h (0 Bft) 97,87 %
12.05.2022 06:30 11,4 C 10,6 C 7,2 C 93 % 1017,0 hPa 0,0 l/m 0 min 0 min 25 W/m 0,0 km/h (0 Bft) 95,74 %
12.05.2022 06:32 11,4 C 10,6 C 7,2 C 93 % 1017,1 hPa 0,0 l/m 0 min 0 min 25 W/m 0,0 km/h (0 Bft) 93,48 %
12.05.2022 06:34 11,4 C 10,6 C 7,2 C 93 % 1017,2 hPa 0,0 l/m 0 min 0 min 25 W/m 3,2 km/h (1 Bft) 97,87 %
12.05.2022 06:36 11,4 C 10,6 C 7,2 C 93 % 1017,2 hPa 0,0 l/m 0 min 0 min 25 W/m 3,2 km/h (1 Bft) 95,74 %
12.05.2022 06:38 11,4 C 10,6 C 7,2 C 93 % 1017,3 hPa 0,0 l/m 0 min 0 min 25 W/m 0,0 km/h (0 Bft) 95,74 %
12.05.2022 06:40 11,4 C 10,6 C 7,2 C 93 % 1017,3 hPa 0,0 l/m 0 min 0 min 25 W/m 0,0 km/h (0 Bft) 93,62 %
12.05.2022 06:42 11,4 C 11,1 C 7,8 C 93 % 1017,3 hPa 0,0 l/m 0 min 0 min 25 W/m 3,2 km/h (1 Bft) 95,74 %
12.05.2022 06:44 11,4 C 11,1 C 7,8 C 93 % 1017,3 hPa 0,0 l/m 0 min 0 min 26 W/m 3,2 km/h (1 Bft) 97,83 %
12.05.2022 06:46 11,4 C 11,1 C 7,8 C 93 % 1017,4 hPa 0,0 l/m 0 min 0 min 26 W/m 3,2 km/h (1 Bft) 97,87 %
12.05.2022 06:48 11,4 C 11,1 C 7,8 C 93 % 1017,4 hPa 0,0 l/m 0 min 0 min 25 W/m 3,2 km/h (1 Bft) 97,87 %
12.05.2022 06:50 11,5 C 11,1 C 7,8 C 93 % 1017,4 hPa 0,0 l/m 0 min 0 min 26 W/m 3,2 km/h (1 Bft) 97,87 %
12.05.2022 06:52 11,5 C 11,1 C 7,8 C 93 % 1017,4 hPa 0,0 l/m 0 min 0 min 27 W/m 3,2 km/h (1 Bft) 97,87 %
12.05.2022 06:54 11,5 C 11,1 C 7,8 C 93 % 1017,5 hPa 0,0 l/m 0 min 0 min 30 W/m 3,2 km/h (1 Bft) 97,87 %
12.05.2022 06:56 11,6 C 11,1 C 7,8 C 93 % 1017,5 hPa 0,0 l/m 0 min 0 min 32 W/m 3,2 km/h (1 Bft) 95,65 %
12.05.2022 06:58 11,6 C 11,1 C 7,8 C 93 % 1017,5 hPa 0,0 l/m 0 min 0 min 32 W/m 3,2 km/h (1 Bft) 97,87 %
12.05.2022 07:00 11,6 C 11,7 C 7,8 C 93 % 1017,6 hPa 0,0 l/m 0 min 0 min 31 W/m 3,2 km/h (1 Bft) 95,74 %
12.05.2022 07:02 11,6 C 11,1 C 7,8 C 93 % 1017,6 hPa 0,0 l/m 0 min 0 min 30 W/m 3,2 km/h (1 Bft) 97,87 %
12.05.2022 07:04 11,7 C 11,1 C 7,8 C 93 % 1017,6 hPa 0,0 l/m 0 min 0 min 29 W/m 3,2 km/h (1 Bft) 97,87 %
12.05.2022 07:06 11,7 C 11,7 C 7,8 C 93 % 1017,7 hPa 0,0 l/m 0 min 0 min 29 W/m 6,4 km/h (2 Bft) 97,87 %
12.05.2022 07:08 11,7 C 11,7 C 8,3 C 93 % 1017,7 hPa 0,0 l/m 0 min 0 min 32 W/m 3,2 km/h (1 Bft) 97,83 %
12.05.2022 07:10 11,8 C 11,7 C 8,3 C 93 % 1017,7 hPa 0,0 l/m 0 min 0 min 33 W/m 3,2 km/h (1 Bft) 97,87 %
12.05.2022 07:12 11,8 C 11,7 C 8,3 C 93 % 1017,8 hPa 0,0 l/m 0 min 0 min 33 W/m 3,2 km/h (1 Bft) 100,00 %
12.05.2022 07:14 11,8 C 11,7 C 8,3 C 93 % 1017,8 hPa 0,0 l/m 0 min 0 min 35 W/m 6,4 km/h (2 Bft) 100,00 %
12.05.2022 07:16 11,8 C 11,7 C 8,3 C 93 % 1017,7 hPa 0,0 l/m 0 min 0 min 37 W/m 3,2 km/h (1 Bft) 100,00 %
12.05.2022 07:18 11,9 C 11,7 C 8,3 C 93 % 1017,7 hPa 0,0 l/m 0 min 0 min 37 W/m 3,2 km/h (1 Bft) 100,00 %
12.05.2022 07:20 11,9 C 11,7 C 8,3 C 93 % 1017,7 hPa 0,0 l/m 0 min 0 min 37 W/m 3,2 km/h (1 Bft) 100,00 %
12.05.2022 07:22 12,0 C 11,7 C 8,3 C 93 % 1017,8 hPa 0,0 l/m 0 min 0 min 38 W/m 0,0 km/h (0 Bft) 100,00 %
12.05.2022 07:24 12,0 C 11,7 C 8,3 C 93 % 1017,8 hPa 0,0 l/m 0 min 0 min 39 W/m 6,4 km/h (2 Bft) 100,00 %
12.05.2022 07:26 12,1 C 11,7 C 8,3 C 93 % 1017,8 hPa 0,0 l/m 0 min 0 min 37 W/m 3,2 km/h (1 Bft) 97,87 %
12.05.2022 07:28 12,1 C 12,2 C 8,3 C 93 % 1017,9 hPa 0,0 l/m 0 min 0 min 37 W/m 6,4 km/h (2 Bft) 100,00 %
12.05.2022 07:30 12,1 C 12,2 C 8,3 C 93 % 1018,0 hPa 0,0 l/m 0 min 0 min 35 W/m 3,2 km/h (1 Bft) 100,00 %
12.05.2022 07:32 12,1 C 12,2 C 8,9 C 93 % 1018,0 hPa 0,0 l/m 0 min 0 min 39 W/m 3,2 km/h (1 Bft) 97,87 %
12.05.2022 07:34 12,2 C 12,2 C 8,9 C 93 % 1018,0 hPa 0,0 l/m 0 min 0 min 42 W/m 6,4 km/h (2 Bft) 100,00 %
12.05.2022 07:36 12,2 C 12,2 C 8,9 C 93 % 1018,0 hPa 0,0 l/m 0 min 0 min 42 W/m 3,2 km/h (1 Bft) 100,00 %
12.05.2022 07:38 12,3 C 12,2 C 8,9 C 93 % 1018,0 hPa 0,0 l/m 0 min 0 min 43 W/m 3,2 km/h (1 Bft) 100,00 %
12.05.2022 07:40 12,3 C 12,2 C 8,9 C 93 % 1018,0 hPa 0,0 l/m 0 min 0 min 44 W/m 3,2 km/h (1 Bft) 100,00 %
12.05.2022 07:42 12,3 C 12,2 C 8,9 C 92 % 1018,0 hPa 0,0 l/m 0 min 0 min 45 W/m 3,2 km/h (1 Bft) 100,00 %
12.05.2022 07:44 12,4 C 12,2 C 8,9 C 92 % 1018,0 hPa 0,0 l/m 0 min 0 min 46 W/m 3,2 km/h (1 Bft) 100,00 %
12.05.2022 07:46 12,4 C 12,2 C 8,9 C 92 % 1018,1 hPa 0,0 l/m 0 min 0 min 46 W/m 6,4 km/h (2 Bft) 97,92 %
12.05.2022 07:48 12,5 C 12,2 C 8,9 C 92 % 1018,1 hPa 0,0 l/m 0 min 0 min 46 W/m 6,4 km/h (2 Bft) 100,00 %
12.05.2022 07:50 12,6 C 12,2 C 8,9 C 92 % 1018,2 hPa 0,0 l/m 0 min 0 min 46 W/m 3,2 km/h (1 Bft) 100,00 %
12.05.2022 07:52 12,6 C 12,2 C 8,9 C 92 % 1018,3 hPa 0,0 l/m 0 min 0 min 47 W/m 9,7 km/h (2 Bft) 100,00 %
12.05.2022 07:54 12,7 C 12,8 C 9,4 C 92 % 1018,2 hPa 0,0 l/m 0 min 0 min 49 W/m 6,4 km/h (2 Bft) 100,00 %
12.05.2022 07:56 12,7 C 12,8 C 9,4 C 91 % 1018,3 hPa 0,0 l/m 0 min 0 min 50 W/m 6,4 km/h (2 Bft) 97,87 %
12.05.2022 07:58 12,8 C 12,8 C 9,4 C 91 % 1018,3 hPa 0,0 l/m 0 min 0 min 52 W/m 12,9 km/h (3 Bft) 97,83 %
12.05.2022 08:00 12,8 C 12,8 C 9,4 C 91 % 1018,4 hPa 0,0 l/m 0 min 0 min 139 W/m 6,4 km/h (2 Bft) 97,87 %
12.05.2022 08:02 12,9 C 12,8 C 9,4 C 91 % 1018,4 hPa 0,0 l/m 2 min 0 min 218 W/m 12,9 km/h (3 Bft) 95,74 %
12.05.2022 08:04 12,9 C 12,8 C 9,4 C 91 % 1018,5 hPa 0,0 l/m 0 min 0 min 121 W/m 6,4 km/h (2 Bft) 97,87 %
12.05.2022 08:06 13,0 C 12,8 C 9,4 C 91 % 1018,4 hPa 0,0 l/m 0 min 0 min 86 W/m 12,9 km/h (3 Bft) 97,87 %
12.05.2022 08:08 13,1 C 12,8 C 9,4 C 91 % 1018,4 hPa 0,0 l/m 2 min 0 min 202 W/m 6,4 km/h (2 Bft) 97,87 %
12.05.2022 08:10 13,1 C 12,8 C 9,4 C 91 % 1018,5 hPa 0,0 l/m 2 min 0 min 283 W/m 12,9 km/h (3 Bft) 97,83 %
12.05.2022 08:12 13,2 C 12,8 C 10,0 C 91 % 1018,6 hPa 0,0 l/m 2 min 0 min 291 W/m 12,9 km/h (3 Bft) 97,87 %
12.05.2022 08:14 13,2 C 13,3 C 10,0 C 91 % 1018,5 hPa 0,0 l/m 2 min 0 min 297 W/m 6,4 km/h (2 Bft) 97,87 %
12.05.2022 08:16 13,3 C 13,3 C 10,0 C 91 % 1018,6 hPa 0,0 l/m 2 min 0 min 300 W/m 6,4 km/h (2 Bft) 97,87 %
12.05.2022 08:18 13,4 C 13,9 C 10,0 C 90 % 1018,5 hPa 0,0 l/m 2 min 0 min 317 W/m 3,2 km/h (1 Bft) 95,74 %
12.05.2022 08:20 13,4 C 14,4 C 10,0 C 90 % 1018,6 hPa 0,0 l/m 2 min 0 min 325 W/m 12,9 km/h (3 Bft) 95,74 %
12.05.2022 08:22 13,6 C 15,0 C 10,0 C 90 % 1018,6 hPa 0,0 l/m 2 min 0 min 330 W/m 6,4 km/h (2 Bft) 97,83 %
12.05.2022 08:24 13,6 C 15,0 C 10,0 C 90 % 1018,7 hPa 0,0 l/m 2 min 0 min 327 W/m 6,4 km/h (2 Bft) 97,87 %
12.05.2022 08:26 13,7 C 15,0 C 10,0 C 90 % 1018,7 hPa 0,0 l/m 2 min 0 min 342 W/m 6,4 km/h (2 Bft) 97,87 %
12.05.2022 08:28 13,8 C 15,6 C 10,0 C 90 % 1018,7 hPa 0,0 l/m 2 min 0 min 344 W/m 12,9 km/h (3 Bft) 97,87 %
12.05.2022 08:30 13,8 C 15,6 C 10,0 C 90 % 1018,7 hPa 0,0 l/m 2 min 0 min 326 W/m 16,1 km/h (3 Bft) 100,00 %
12.05.2022 08:32 13,8 C 15,6 C 10,0 C 89 % 1018,7 hPa 0,0 l/m 2 min 0 min 351 W/m 16,1 km/h (3 Bft) 97,87 %
12.05.2022 08:34 13,9 C 16,1 C 10,0 C 89 % 1018,8 hPa 0,0 l/m 2 min 0 min 355 W/m 6,4 km/h (2 Bft) 100,00 %
12.05.2022 08:36 14,0 C 16,7 C 10,6 C 89 % 1018,7 hPa 0,0 l/m 2 min 0 min 338 W/m 3,2 km/h (1 Bft) 100,00 %
12.05.2022 08:38 14,1 C 17,2 C 10,6 C 89 % 1018,7 hPa 0,0 l/m 2 min 0 min 377 W/m 6,4 km/h (2 Bft) 100,00 %
12.05.2022 08:40 14,2 C 17,8 C 10,6 C 89 % 1018,8 hPa 0,0 l/m 2 min 0 min 378 W/m 6,4 km/h (2 Bft) 97,87 %
12.05.2022 08:42 14,3 C 17,8 C 10,6 C 89 % 1018,8 hPa 0,0 l/m 2 min 0 min 312 W/m 19,3 km/h (3 Bft) 97,87 %
12.05.2022 08:44 14,3 C 17,8 C 10,6 C 88 % 1018,8 hPa 0,0 l/m 2 min 0 min 384 W/m 12,9 km/h (3 Bft) 97,87 %
12.05.2022 08:46 14,3 C 18,9 C 10,6 C 88 % 1018,8 hPa 0,0 l/m 2 min 0 min 406 W/m 3,2 km/h (1 Bft) 97,83 %
12.05.2022 08:48 14,4 C 19,4 C 10,6 C 88 % 1018,9 hPa 0,0 l/m 2 min 0 min 392 W/m 3,2 km/h (1 Bft) 95,74 %
12.05.2022 08:50 14,5 C 20,0 C 11,1 C 88 % 1018,9 hPa 0,0 l/m 2 min 0 min 411 W/m 9,7 km/h (2 Bft) 97,87 %
12.05.2022 08:52 14,6 C 19,4 C 11,1 C 88 % 1018,9 hPa 0,0 l/m 2 min 0 min 422 W/m 9,7 km/h (2 Bft) 97,87 %
12.05.2022 08:54 14,6 C 18,9 C 11,1 C 86 % 1018,9 hPa 0,0 l/m 2 min 0 min 425 W/m 12,9 km/h (3 Bft) 97,87 %
12.05.2022 08:56 14,7 C 19,4 C 11,7 C 86 % 1018,9 hPa 0,0 l/m 2 min 0 min 426 W/m 9,7 km/h (2 Bft) 95,74 %
12.05.2022 08:58 14,9 C 20,0 C 12,2 C 86 % 1018,9 hPa 0,0 l/m 2 min 0 min 439 W/m 3,2 km/h (1 Bft) 95,65 %
12.05.2022 09:00 15,1 C 21,1 C 12,8 C 86 % 1018,9 hPa 0,0 l/m 2 min 0 min 449 W/m 6,4 km/h (2 Bft) 95,74 %
12.05.2022 09:02 15,2 C 21,1 C 13,3 C 86 % 1018,9 hPa 0,0 l/m 2 min 0 min 471 W/m 6,4 km/h (2 Bft) 97,87 %
12.05.2022 09:04 15,3 C 21,1 C 13,9 C 86 % 1018,9 hPa 0,0 l/m 2 min 0 min 456 W/m 6,4 km/h (2 Bft) 97,87 %
12.05.2022 09:06 15,4 C 20,0 C 13,9 C 84 % 1018,9 hPa 0,0 l/m 2 min 0 min 471 W/m 16,1 km/h (3 Bft) 97,87 %
12.05.2022 09:08 15,5 C 20,6 C 13,9 C 84 % 1018,9 hPa 0,0 l/m 2 min 0 min 461 W/m 12,9 km/h (3 Bft) 93,62 %
12.05.2022 09:10 15,6 C 19,4 C 13,9 C 83 % 1018,9 hPa 0,0 l/m 2 min 0 min 469 W/m 6,4 km/h (2 Bft) 97,83 %
12.05.2022 09:12 15,5 C 19,4 C 13,9 C 83 % 1019,0 hPa 0,0 l/m 2 min 0 min 471 W/m 12,9 km/h (3 Bft) 97,87 %
12.05.2022 09:14 15,5 C 18,9 C 13,9 C 83 % 1019,0 hPa 0,0 l/m 2 min 0 min 490 W/m 9,7 km/h (2 Bft) 95,74 %
12.05.2022 09:16 15,5 C 17,8 C 13,3 C 82 % 1019,0 hPa 0,0 l/m 2 min 0 min 453 W/m 16,1 km/h (3 Bft) 97,87 %
12.05.2022 09:18 15,4 C 17,2 C 13,3 C 82 % 1019,0 hPa 0,0 l/m 0 min 0 min 227 W/m 12,9 km/h (3 Bft) 95,74 %
12.05.2022 09:20 15,4 C 17,2 C 13,3 C 82 % 1019,0 hPa 0,0 l/m 0 min 0 min 172 W/m 12,9 km/h (3 Bft) 97,87 %
12.05.2022 09:22 15,4 C 18,3 C 13,3 C 83 % 1019,0 hPa 0,0 l/m 2 min 0 min 354 W/m 12,9 km/h (3 Bft) 97,83 %
12.05.2022 09:24 15,4 C 18,9 C 13,9 C 83 % 1019,0 hPa 0,0 l/m 2 min 0 min 483 W/m 6,4 km/h (2 Bft) 100,00 %
12.05.2022 09:26 15,4 C 19,4 C 14,4 C 83 % 1019,0 hPa 0,0 l/m 2 min 0 min 536 W/m 16,1 km/h (3 Bft) 97,87 %
12.05.2022 09:28 15,4 C 19,4 C 14,4 C 82 % 1019,0 hPa 0,0 l/m 2 min 0 min 510 W/m 12,9 km/h (3 Bft) 97,87 %
12.05.2022 09:30 15,6 C 20,0 C 15,0 C 82 % 1019,0 hPa 0,0 l/m 2 min 0 min 552 W/m 6,4 km/h (2 Bft) 100,00 %
12.05.2022 09:32 15,7 C 20,0 C 15,6 C 82 % 1019,1 hPa 0,0 l/m 2 min 0 min 607 W/m 12,9 km/h (3 Bft) 95,74 %
12.05.2022 09:34 15,7 C 19,4 C 15,0 C 81 % 1019,1 hPa 0,0 l/m 2 min 0 min 589 W/m 6,4 km/h (2 Bft) 100,00 %
12.05.2022 09:36 15,8 C 19,4 C 15,0 C 81 % 1019,2 hPa 0,0 l/m 2 min 0 min 584 W/m 12,9 km/h (3 Bft) 97,87 %
12.05.2022 09:38 15,9 C 19,4 C 15,6 C 81 % 1019,2 hPa 0,0 l/m 2 min 0 min 567 W/m 16,1 km/h (3 Bft) 100,00 %
12.05.2022 09:40 15,9 C 19,4 C 15,6 C 81 % 1019,2 hPa 0,0 l/m 2 min 0 min 603 W/m 16,1 km/h (3 Bft) 100,00 %
12.05.2022 09:42 16,0 C 19,4 C 15,6 C 80 % 1019,2 hPa 0,0 l/m 2 min 0 min 610 W/m 16,1 km/h (3 Bft) 97,87 %
12.05.2022 09:44 16,1 C 19,4 C 16,1 C 80 % 1019,3 hPa 0,0 l/m 2 min 0 min 619 W/m 16,1 km/h (3 Bft) 100,00 %
12.05.2022 09:46 16,1 C 19,4 C 16,1 C 80 % 1019,2 hPa 0,0 l/m 2 min 0 min 601 W/m 19,3 km/h (3 Bft) 95,65 %
12.05.2022 09:48 16,2 C 19,4 C 15,6 C 79 % 1019,3 hPa 0,0 l/m 2 min 0 min 641 W/m 16,1 km/h (3 Bft) 97,87 %
12.05.2022 09:50 16,2 C 19,4 C 15,6 C 79 % 1019,2 hPa 0,0 l/m 2 min 0 min 652 W/m 12,9 km/h (3 Bft) 95,74 %
12.05.2022 09:52 16,2 C 20,0 C 16,1 C 79 % 1019,3 hPa 0,0 l/m 2 min 0 min 702 W/m 6,4 km/h (2 Bft) 97,87 %
12.05.2022 09:54 16,4 C 20,6 C 16,1 C 79 % 1019,3 hPa 0,0 l/m 2 min 0 min 732 W/m 9,7 km/h (2 Bft) 97,87 %
12.05.2022 09:56 16,5 C 20,0 C 16,1 C 79 % 1019,3 hPa 0,0 l/m 2 min 0 min 335 W/m 12,9 km/h (3 Bft) 95,74 %
12.05.2022 09:58 16,5 C 18,9 C 15,6 C 77 % 1019,3 hPa 0,0 l/m 2 min 0 min 624 W/m 6,4 km/h (2 Bft) 91,30 %
12.05.2022 10:00 16,4 C 18,9 C 15,0 C 78 % 1019,3 hPa 0,0 l/m 2 min 0 min 687 W/m 16,1 km/h (3 Bft) 97,87 %
12.05.2022 10:02 16,4 C 18,9 C 14,4 C 77 % 1019,4 hPa 0,0 l/m 2 min 0 min 731 W/m 16,1 km/h (3 Bft) 93,62 %
12.05.2022 10:04 16,4 C 18,3 C 13,9 C 77 % 1019,3 hPa 0,0 l/m 2 min 0 min 758 W/m 16,1 km/h (3 Bft) 95,74 %
12.05.2022 10:06 16,4 C 17,8 C 13,9 C 77 % 1019,4 hPa 0,0 l/m 2 min 0 min 366 W/m 12,9 km/h (3 Bft) 91,49 %
12.05.2022 10:08 16,4 C 18,3 C 13,9 C 77 % 1019,4 hPa 0,0 l/m 2 min 0 min 445 W/m 12,9 km/h (3 Bft) 95,74 %
12.05.2022 10:10 16,4 C 18,3 C 13,9 C 78 % 1019,4 hPa 0,0 l/m 2 min 0 min 659 W/m 12,9 km/h (3 Bft) 93,48 %
12.05.2022 10:12 16,4 C 18,9 C 13,9 C 78 % 1019,4 hPa 0,0 l/m 2 min 0 min 705 W/m 12,9 km/h (3 Bft) 95,74 %
12.05.2022 10:14 16,5 C 18,9 C 13,9 C 77 % 1019,4 hPa 0,0 l/m 2 min 0 min 717 W/m 16,1 km/h (3 Bft) 95,74 %
12.05.2022 10:16 16,6 C 18,3 C 13,9 C 77 % 1019,5 hPa 0,0 l/m 2 min 0 min 694 W/m 6,4 km/h (2 Bft) 95,74 %
12.05.2022 10:18 16,6 C 18,9 C 13,9 C 77 % 1019,5 hPa 0,0 l/m 2 min 0 min 652 W/m 6,4 km/h (2 Bft) 95,74 %
12.05.2022 10:20 16,7 C 20,0 C 14,4 C 78 % 1019,5 hPa 0,0 l/m 2 min 0 min 655 W/m 6,4 km/h (2 Bft) 95,74 %
12.05.2022 10:22 16,8 C 20,0 C 15,0 C 78 % 1019,5 hPa 0,0 l/m 2 min 0 min 679 W/m 16,1 km/h (3 Bft) 93,48 %
12.05.2022 10:24 16,9 C 20,0 C 15,6 C 77 % 1019,5 hPa 0,0 l/m 2 min 0 min 672 W/m 9,7 km/h (2 Bft) 95,74 %
12.05.2022 10:26 17,0 C 20,6 C 15,6 C 77 % 1019,5 hPa 0,0 l/m 2 min 0 min 717 W/m 9,7 km/h (2 Bft) 93,62 %
12.05.2022 10:28 17,0 C 19,4 C 15,6 C 77 % 1019,5 hPa 0,0 l/m 2 min 0 min 741 W/m 25,7 km/h (4 Bft) 95,74 %
12.05.2022 10:30 16,9 C 18,3 C 14,4 C 75 % 1019,6 hPa 0,0 l/m 2 min 0 min 542 W/m 12,9 km/h (3 Bft) 95,74 %
12.05.2022 10:32 16,8 C 17,8 C 14,4 C 75 % 1019,6 hPa 0,0 l/m 0 min 0 min 292 W/m 16,1 km/h (3 Bft) 95,74 %
12.05.2022 10:34 16,8 C 17,8 C 14,4 C 75 % 1019,6 hPa 0,0 l/m 0 min 0 min 302 W/m 12,9 km/h (3 Bft) 97,83 %
12.05.2022 10:36 16,8 C 17,2 C 14,4 C 76 % 1019,6 hPa 0,0 l/m 0 min 0 min 279 W/m 12,9 km/h (3 Bft) 97,87 %
12.05.2022 10:38 16,8 C 17,2 C 13,9 C 76 % 1019,7 hPa 0,0 l/m 0 min 0 min 207 W/m 9,7 km/h (2 Bft) 97,87 %
12.05.2022 10:40 16,7 C 16,7 C 13,9 C 76 % 1019,7 hPa 0,0 l/m 0 min 0 min 182 W/m 12,9 km/h (3 Bft) 97,87 %
12.05.2022 10:42 16,6 C 16,7 C 13,3 C 76 % 1019,7 hPa 0,0 l/m 0 min 0 min 212 W/m 9,7 km/h (2 Bft) 97,87 %
12.05.2022 10:44 16,6 C 16,7 C 14,4 C 77 % 1019,7 hPa 0,0 l/m 0 min 0 min 218 W/m 6,4 km/h (2 Bft) 97,87 %
12.05.2022 10:46 16,6 C 17,2 C 15,6 C 77 % 1019,6 hPa 0,0 l/m 2 min 0 min 368 W/m 6,4 km/h (2 Bft) 97,83 %
12.05.2022 10:48 16,6 C 17,2 C 15,0 C 77 % 1019,6 hPa 0,0 l/m 2 min 0 min 507 W/m 16,1 km/h (3 Bft) 95,74 %
12.05.2022 10:50 16,6 C 17,2 C 15,6 C 76 % 1019,6 hPa 0,0 l/m 2 min 0 min 464 W/m 12,9 km/h (3 Bft) 97,87 %
12.05.2022 10:52 16,7 C 17,8 C 15,6 C 77 % 1019,6 hPa 0,0 l/m 2 min 0 min 724 W/m 9,7 km/h (2 Bft) 95,74 %
12.05.2022 10:54 16,8 C 17,8 C 15,6 C 77 % 1019,6 hPa 0,0 l/m 2 min 0 min 700 W/m 12,9 km/h (3 Bft) 97,87 %
12.05.2022 10:56 16,9 C 18,3 C 15,0 C 75 % 1019,6 hPa 0,0 l/m 2 min 0 min 748 W/m 12,9 km/h (3 Bft) 95,65 %
12.05.2022 10:58 17,0 C 18,3 C 15,0 C 74 % 1019,7 hPa 0,0 l/m 2 min 0 min 764 W/m 16,1 km/h (3 Bft) 95,74 %
12.05.2022 11:00 17,1 C 18,3 C 15,0 C 73 % 1019,6 hPa 0,0 l/m 2 min 0 min 772 W/m 16,1 km/h (3 Bft) 97,87 %
12.05.2022 11:02 17,2 C 18,9 C 14,4 C 73 % 1019,7 hPa 0,0 l/m 2 min 0 min 750 W/m 19,3 km/h (3 Bft) 97,87 %
12.05.2022 11:04 17,3 C 18,9 C 14,4 C 72 % 1019,6 hPa 0,0 l/m 2 min 0 min 757 W/m 22,5 km/h (4 Bft) 98,15 %
12.05.2022 11:06 17,3 C 18,9 C 13,9 C 72 % 1019,7 hPa 0,0 l/m 2 min 0 min 757 W/m 19,3 km/h (3 Bft) 97,83 %
12.05.2022 11:08 17,4 C 18,9 C 14,4 C 73 % 1019,6 hPa 0,0 l/m 2 min 0 min 775 W/m 16,1 km/h (3 Bft) 100,00 %
12.05.2022 11:10 17,5 C 19,4 C 14,4 C 73 % 1019,6 hPa 0,0 l/m 2 min 0 min 807 W/m 12,9 km/h (3 Bft) 100,00 %
12.05.2022 11:12 17,6 C 19,4 C 14,4 C 72 % 1019,6 hPa 0,0 l/m 2 min 0 min 764 W/m 16,1 km/h (3 Bft) 95,74 %
12.05.2022 11:14 17,7 C 18,9 C 14,4 C 72 % 1019,6 hPa 0,0 l/m 2 min 0 min 714 W/m 12,9 km/h (3 Bft) 97,87 %
12.05.2022 11:16 17,8 C 18,9 C 14,4 C 71 % 1019,6 hPa 0,0 l/m 2 min 0 min 710 W/m 12,9 km/h (3 Bft) 97,87 %
12.05.2022 11:18 17,8 C 18,9 C 14,4 C 71 % 1019,6 hPa 0,0 l/m 2 min 0 min 741 W/m 12,9 km/h (3 Bft) 97,83 %
12.05.2022 11:20 17,8 C 18,9 C 14,4 C 70 % 1019,6 hPa 0,0 l/m 2 min 0 min 816 W/m 19,3 km/h (3 Bft) 97,87 %
12.05.2022 11:22 17,9 C 18,9 C 14,4 C 68 % 1019,6 hPa 0,0 l/m 2 min 0 min 875 W/m 19,3 km/h (3 Bft) 97,87 %
12.05.2022 11:24 17,9 C 18,9 C 14,4 C 69 % 1019,6 hPa 0,0 l/m 2 min 0 min 582 W/m 12,9 km/h (3 Bft) 97,87 %
12.05.2022 11:26 18,0 C 18,9 C 14,4 C 70 % 1019,6 hPa 0,0 l/m 0 min 0 min 276 W/m 16,1 km/h (3 Bft) 97,87 %
12.05.2022 11:28 18,0 C 19,4 C 14,4 C 70 % 1019,6 hPa 0,0 l/m 2 min 0 min 476 W/m 12,9 km/h (3 Bft) 97,87 %
12.05.2022 11:30 18,1 C 19,4 C 14,4 C 70 % 1019,6 hPa 0,0 l/m 2 min 0 min 822 W/m 16,1 km/h (3 Bft) 95,65 %
12.05.2022 11:32 18,1 C 19,4 C 15,0 C 69 % 1019,6 hPa 0,0 l/m 2 min 0 min 821 W/m 16,1 km/h (3 Bft) 97,87 %
12.05.2022 11:34 18,2 C 20,0 C 15,0 C 70 % 1019,6 hPa 0,0 l/m 2 min 0 min 859 W/m 16,1 km/h (3 Bft) 97,87 %
12.05.2022 11:36 18,2 C 20,6 C 15,0 C 69 % 1019,6 hPa 0,0 l/m 2 min 0 min 888 W/m 25,7 km/h (4 Bft) 95,74 %
12.05.2022 11:38 18,3 C 20,6 C 15,6 C 68 % 1019,6 hPa 0,0 l/m 2 min 0 min 878 W/m 16,1 km/h (3 Bft) 97,87 %
12.05.2022 11:40 18,4 C 20,6 C 15,6 C 68 % 1019,6 hPa 0,0 l/m 2 min 0 min 882 W/m 19,3 km/h (3 Bft) 97,87 %
12.05.2022 11:42 18,4 C 21,1 C 16,1 C 67 % 1019,6 hPa 0,0 l/m 2 min 0 min 947 W/m 12,9 km/h (3 Bft) 97,83 %
12.05.2022 11:44 18,4 C 20,6 C 16,1 C 66 % 1019,6 hPa 0,0 l/m 2 min 0 min 923 W/m 25,7 km/h (4 Bft) 97,87 %
12.05.2022 11:46 18,5 C 20,6 C 16,1 C 65 % 1019,6 hPa 0,0 l/m 2 min 0 min 938 W/m 19,3 km/h (3 Bft) 97,87 %
12.05.2022 11:48 18,6 C 20,6 C 16,7 C 65 % 1019,6 hPa 0,0 l/m 2 min 0 min 984 W/m 16,1 km/h (3 Bft) 95,74 %
12.05.2022 11:50 18,6 C 20,0 C 16,1 C 65 % 1019,7 hPa 0,0 l/m 2 min 0 min 922 W/m 16,1 km/h (3 Bft) 97,87 %
12.05.2022 11:52 18,5 C 20,0 C 16,1 C 65 % 1019,7 hPa 0,0 l/m 2 min 0 min 891 W/m 12,9 km/h (3 Bft) 97,87 %
12.05.2022 11:54 18,4 C 19,4 C 15,6 C 66 % 1019,6 hPa 0,0 l/m 2 min 0 min 827 W/m 12,9 km/h (3 Bft) 95,65 %
12.05.2022 11:56 18,4 C 18,9 C 15,6 C 67 % 1019,6 hPa 0,0 l/m 0 min 0 min 251 W/m 16,1 km/h (3 Bft) 97,87 %
12.05.2022 11:58 18,3 C 18,9 C 15,0 C 67 % 1019,5 hPa 0,0 l/m 0 min 0 min 203 W/m 16,1 km/h (3 Bft) 100,00 %
12.05.2022 12:00 18,3 C 18,9 C 15,6 C 66 % 1019,6 hPa 0,0 l/m 0 min 0 min 324 W/m 16,1 km/h (3 Bft) 97,87 %
12.05.2022 12:02 18,3 C 19,4 C 16,7 C 65 % 1019,5 hPa 0,0 l/m 2 min 0 min 826 W/m 16,1 km/h (3 Bft) 100,00 %
12.05.2022 12:04 18,3 C 20,0 C 17,2 C 65 % 1019,5 hPa 0,0 l/m 2 min 0 min 791 W/m 29,0 km/h (5 Bft) 97,87 %
12.05.2022 12:07 18,4 C 20,0 C 18,9 C 63 % 1019,5 hPa 0,0 l/m 3 min 0 min 844 W/m 29,0 km/h (5 Bft) 100,00 %
12.05.2022 12:08 18,4 C 20,0 C 18,9 C 63 % 1019,5 hPa 0,0 l/m 1 min 0 min 801 W/m 6,4 km/h (2 Bft) 100,00 %
12.05.2022 12:10 18,4 C 20,0 C 19,4 C 62 % 1019,4 hPa 0,0 l/m 2 min 0 min 855 W/m 16,1 km/h (3 Bft) 97,83 %
12.05.2022 12:12 18,5 C 20,6 C 20,0 C 59 % 1019,5 hPa 0,0 l/m 2 min 0 min 901 W/m 12,9 km/h (3 Bft) 97,87 %
12.05.2022 12:14 18,7 C 20,6 C 20,6 C 60 % 1019,4 hPa 0,0 l/m 2 min 0 min 791 W/m 16,1 km/h (3 Bft) 97,87 %
12.05.2022 12:16 18,8 C 20,6 C 20,6 C 61 % 1019,4 hPa 0,0 l/m 2 min 0 min 622 W/m 12,9 km/h (3 Bft) 95,74 %
12.05.2022 12:18 18,8 C 20,6 C 20,0 C 60 % 1019,5 hPa 0,0 l/m 2 min 0 min 565 W/m 16,1 km/h (3 Bft) 97,87 %
12.05.2022 12:20 18,8 C 20,0 C 18,9 C 61 % 1019,5 hPa 0,0 l/m 2 min 0 min 406 W/m 16,1 km/h (3 Bft) 95,65 %
12.05.2022 12:22 18,8 C 20,0 C 17,8 C 62 % 1019,5 hPa 0,0 l/m 0 min 0 min 352 W/m 19,3 km/h (3 Bft) 97,87 %
12.05.2022 12:24 18,8 C 19,4 C 17,2 C 63 % 1019,5 hPa 0,0 l/m 0 min 0 min 302 W/m 19,3 km/h (3 Bft) 97,87 %
12.05.2022 12:26 18,8 C 19,4 C 17,2 C 64 % 1019,5 hPa 0,0 l/m 0 min 0 min 315 W/m 16,1 km/h (3 Bft) 95,74 %
12.05.2022 12:28 18,8 C 19,4 C 17,2 C 63 % 1019,5 hPa 0,0 l/m 0 min 0 min 320 W/m 16,1 km/h (3 Bft) 97,87 %
12.05.2022 12:30 18,8 C 20,0 C 18,3 C 64 % 1019,5 hPa 0,0 l/m 0 min 0 min 320 W/m 9,7 km/h (2 Bft) 97,87 %
12.05.2022 12:32 18,7 C 19,4 C 17,8 C 64 % 1019,5 hPa 0,0 l/m 0 min 0 min 320 W/m 6,4 km/h (2 Bft) 97,83 %
12.05.2022 12:34 18,6 C 19,4 C 17,2 C 65 % 1019,4 hPa 0,0 l/m 0 min 0 min 291 W/m 9,7 km/h (2 Bft) 97,87 %
12.05.2022 12:36 18,6 C 19,4 C 17,2 C 65 % 1019,4 hPa 0,0 l/m 0 min 0 min 283 W/m 22,5 km/h (4 Bft) 98,31 %
12.05.2022 12:38 18,6 C 19,4 C 17,2 C 64 % 1019,5 hPa 0,0 l/m 0 min 0 min 357 W/m 12,9 km/h (3 Bft) 97,14 %
12.05.2022 12:40 18,6 C 19,4 C 18,3 C 64 % 1019,5 hPa 0,0 l/m 2 min 0 min 599 W/m 12,9 km/h (3 Bft) 97,96 %
12.05.2022 12:42 18,6 C 20,0 C 19,4 C 63 % 1019,5 hPa 0,0 l/m 2 min 0 min 786 W/m 16,1 km/h (3 Bft) 97,87 %
12.05.2022 12:44 18,7 C 20,6 C 20,0 C 61 % 1019,5 hPa 0,0 l/m 2 min 0 min 727 W/m 19,3 km/h (3 Bft) 97,83 %
12.05.2022 12:46 18,8 C 20,6 C 20,0 C 61 % 1019,4 hPa 0,0 l/m 2 min 0 min 738 W/m 25,7 km/h (4 Bft) 100,00 %
12.05.2022 12:48 18,8 C 20,0 C 20,6 C 60 % 1019,5 hPa 0,0 l/m 2 min 0 min 784 W/m 22,5 km/h (4 Bft) 100,00 %
12.05.2022 12:50 18,9 C 20,6 C 20,6 C 61 % 1019,4 hPa 0,0 l/m 2 min 0 min 756 W/m 22,5 km/h (4 Bft) 100,00 %
12.05.2022 12:52 19,0 C 21,1 C 21,1 C 62 % 1019,4 hPa 0,0 l/m 2 min 0 min 750 W/m 22,5 km/h (4 Bft) 100,00 %
12.05.2022 12:54 19,2 C 21,1 C 21,1 C 62 % 1019,5 hPa 0,0 l/m 2 min 0 min 873 W/m 19,3 km/h (3 Bft) 100,00 %
12.05.2022 12:56 19,3 C 20,6 C 20,0 C 60 % 1019,5 hPa 0,0 l/m 2 min 0 min 726 W/m 16,1 km/h (3 Bft) 97,83 %
12.05.2022 12:58 19,2 C 20,6 C 18,3 C 60 % 1019,4 hPa 0,0 l/m 0 min 0 min 378 W/m 12,9 km/h (3 Bft) 100,00 %
12.05.2022 13:00 19,2 C 20,6 C 18,3 C 60 % 1019,4 hPa 0,0 l/m 0 min 0 min 364 W/m 16,1 km/h (3 Bft) 100,00 %
12.05.2022 13:02 19,2 C 20,6 C 18,3 C 60 % 1019,4 hPa 0,0 l/m 2 min 0 min 728 W/m 12,9 km/h (3 Bft) 100,00 %
12.05.2022 13:04 19,3 C 21,1 C 17,8 C 58 % 1019,4 hPa 0,0 l/m 2 min 0 min 824 W/m 22,5 km/h (4 Bft) 100,00 %
12.05.2022 13:06 19,5 C 21,1 C 17,8 C 59 % 1019,4 hPa 0,0 l/m 2 min 0 min 727 W/m 16,1 km/h (3 Bft) 100,00 %
12.05.2022 13:08 19,6 C 20,6 C 17,8 C 59 % 1019,3 hPa 0,0 l/m 2 min 0 min 427 W/m 19,3 km/h (3 Bft) 100,00 %
12.05.2022 13:10 19,4 C 20,6 C 17,2 C 58 % 1019,4 hPa 0,0 l/m 2 min 0 min 427 W/m 19,3 km/h (3 Bft) 100,00 %
12.05.2022 13:12 19,5 C 21,1 C 17,8 C 59 % 1019,4 hPa 0,0 l/m 2 min 0 min 735 W/m 12,9 km/h (3 Bft) 97,87 %
12.05.2022 13:14 19,6 C 21,1 C 17,2 C 60 % 1019,4 hPa 0,0 l/m 2 min 0 min 872 W/m 12,9 km/h (3 Bft) 100,00 %
12.05.2022 13:16 19,6 C 21,1 C 17,2 C 60 % 1019,4 hPa 0,0 l/m 2 min 0 min 630 W/m 16,1 km/h (3 Bft) 97,87 %
12.05.2022 13:18 19,5 C 20,0 C 16,7 C 60 % 1019,4 hPa 0,0 l/m 2 min 0 min 418 W/m 16,1 km/h (3 Bft) 100,00 %
12.05.2022 13:20 19,4 C 20,0 C 16,7 C 61 % 1019,4 hPa 0,0 l/m 0 min 0 min 390 W/m 16,1 km/h (3 Bft) 100,00 %
12.05.2022 13:22 19,3 C 20,0 C 16,7 C 61 % 1019,5 hPa 0,0 l/m 2 min 0 min 416 W/m 12,9 km/h (3 Bft) 100,00 %
12.05.2022 13:24 19,2 C 20,0 C 16,7 C 61 % 1019,4 hPa 0,0 l/m 2 min 0 min 434 W/m 16,1 km/h (3 Bft) 97,87 %
12.05.2022 13:26 19,2 C 19,4 C 16,7 C 62 % 1019,4 hPa 0,0 l/m 0 min 0 min 366 W/m 9,7 km/h (2 Bft) 100,00 %
12.05.2022 13:28 19,1 C 19,4 C 16,7 C 61 % 1019,4 hPa 0,0 l/m 0 min 0 min 301 W/m 6,4 km/h (2 Bft) 100,00 %
12.05.2022 13:30 19,1 C 19,4 C 16,7 C 60 % 1019,3 hPa 0,0 l/m 0 min 0 min 327 W/m 12,9 km/h (3 Bft) 100,00 %
12.05.2022 13:32 19,1 C 20,0 C 17,2 C 60 % 1019,4 hPa 0,0 l/m 0 min 0 min 339 W/m 9,7 km/h (2 Bft) 97,83 %
12.05.2022 13:34 19,0 C 20,0 C 17,2 C 60 % 1019,4 hPa 0,0 l/m 0 min 0 min 391 W/m 6,4 km/h (2 Bft) 100,00 %
12.05.2022 13:36 19,1 C 20,6 C 18,3 C 60 % 1019,3 hPa 0,0 l/m 2 min 0 min 432 W/m 6,4 km/h (2 Bft) 97,87 %
12.05.2022 13:38 19,1 C 20,6 C 18,9 C 60 % 1019,4 hPa 0,0 l/m 2 min 0 min 432 W/m 12,9 km/h (3 Bft) 97,87 %
12.05.2022 13:40 19,2 C 21,1 C 20,0 C 59 % 1019,4 hPa 0,0 l/m 2 min 0 min 500 W/m 6,4 km/h (2 Bft) 97,87 %
12.05.2022 13:42 19,3 C 21,7 C 21,1 C 60 % 1019,4 hPa 0,0 l/m 2 min 0 min 886 W/m 12,9 km/h (3 Bft) 97,87 %
12.05.2022 13:44 19,5 C 22,2 C 21,7 C 60 % 1019,3 hPa 0,0 l/m 2 min 0 min 849 W/m 19,3 km/h (3 Bft) 97,83 %
12.05.2022 13:46 19,6 C 21,7 C 20,6 C 58 % 1019,2 hPa 0,0 l/m 2 min 0 min 832 W/m 16,1 km/h (3 Bft) 97,87 %
12.05.2022 13:48 19,7 C 21,7 C 20,0 C 58 % 1019,1 hPa 0,0 l/m 2 min 0 min 798 W/m 9,7 km/h (2 Bft) 97,87 %
12.05.2022 13:50 19,8 C 22,2 C 19,4 C 59 % 1019,2 hPa 0,0 l/m 2 min 0 min 814 W/m 16,1 km/h (3 Bft) 97,87 %
12.05.2022 13:52 20,0 C 22,8 C 19,4 C 58 % 1019,2 hPa 0,0 l/m 2 min 0 min 846 W/m 12,9 km/h (3 Bft) 95,74 %
12.05.2022 13:54 20,1 C 22,2 C 18,9 C 57 % 1019,2 hPa 0,0 l/m 2 min 0 min 840 W/m 16,1 km/h (3 Bft) 97,87 %
12.05.2022 13:56 20,1 C 22,2 C 18,3 C 56 % 1019,2 hPa 0,0 l/m 2 min 0 min 830 W/m 12,9 km/h (3 Bft) 97,83 %
12.05.2022 13:58 20,1 C 22,2 C 17,8 C 56 % 1019,2 hPa 0,0 l/m 2 min 0 min 786 W/m 12,9 km/h (3 Bft) 95,74 %
12.05.2022 14:00 20,1 C 22,2 C 17,8 C 55 % 1019,1 hPa 0,0 l/m 2 min 0 min 838 W/m 12,9 km/h (3 Bft) 97,87 %
12.05.2022 14:02 20,2 C 22,8 C 17,8 C 55 % 1019,0 hPa 0,0 l/m 2 min 0 min 868 W/m 19,3 km/h (3 Bft) 95,74 %
12.05.2022 14:04 20,3 C 22,8 C 17,8 C 54 % 1019,1 hPa 0,0 l/m 2 min 0 min 844 W/m 9,7 km/h (2 Bft) 97,87 %
12.05.2022 14:06 20,4 C 23,3 C 17,8 C 54 % 1019,1 hPa 0,0 l/m 2 min 0 min 853 W/m 6,4 km/h (2 Bft) 95,65 %
12.05.2022 14:08 20,6 C 23,3 C 17,8 C 54 % 1019,1 hPa 0,0 l/m 2 min 0 min 891 W/m 12,9 km/h (3 Bft) 95,92 %
12.05.2022 14:10 20,6 C 23,3 C 17,8 C 53 % 1019,1 hPa 0,0 l/m 2 min 0 min 834 W/m 16,1 km/h (3 Bft) 97,87 %
12.05.2022 14:12 20,6 C 23,3 C 17,8 C 54 % 1019,1 hPa 0,0 l/m 2 min 0 min 830 W/m 9,7 km/h (2 Bft) 93,62 %
12.05.2022 14:14 20,7 C 23,3 C 17,8 C 54 % 1019,2 hPa 0,0 l/m 2 min 0 min 836 W/m 19,3 km/h (3 Bft) 93,62 %
12.05.2022 14:16 20,6 C 23,3 C 17,2 C 54 % 1019,1 hPa 0,0 l/m 2 min 0 min 837 W/m 12,9 km/h (3 Bft) 93,62 %
12.05.2022 14:18 20,7 C 23,3 C 17,8 C 56 % 1019,1 hPa 0,0 l/m 2 min 0 min 868 W/m 6,4 km/h (2 Bft) 95,74 %
12.05.2022 14:20 20,7 C 23,3 C 17,8 C 55 % 1019,2 hPa 0,0 l/m 2 min 0 min 871 W/m 12,9 km/h (3 Bft) 97,83 %
12.05.2022 14:22 20,7 C 23,3 C 17,2 C 55 % 1019,1 hPa 0,0 l/m 2 min 0 min 862 W/m 12,9 km/h (3 Bft) 97,87 %
12.05.2022 14:24 20,7 C 22,8 C 17,2 C 54 % 1019,1 hPa 0,0 l/m 2 min 0 min 874 W/m 19,3 km/h (3 Bft) 95,74 %
12.05.2022 14:26 20,7 C 22,8 C 17,2 C 56 % 1019,1 hPa 0,0 l/m 2 min 0 min 819 W/m 9,7 km/h (2 Bft) 93,62 %
12.05.2022 14:28 20,7 C 22,2 C 17,2 C 55 % 1019,0 hPa 0,0 l/m 2 min 0 min 853 W/m 12,9 km/h (3 Bft) 95,74 %
12.05.2022 14:30 20,7 C 22,8 C 17,2 C 55 % 1019,0 hPa 0,0 l/m 2 min 0 min 855 W/m 16,1 km/h (3 Bft) 95,74 %
12.05.2022 14:32 20,7 C 22,8 C 17,2 C 55 % 1019,0 hPa 0,0 l/m 2 min 0 min 853 W/m 16,1 km/h (3 Bft) 95,65 %
12.05.2022 14:34 20,8 C 22,8 C 17,2 C 54 % 1019,0 hPa 0,0 l/m 2 min 0 min 845 W/m 12,9 km/h (3 Bft) 95,74 %
12.05.2022 14:36 20,8 C 22,8 C 17,2 C 53 % 1019,0 hPa 0,0 l/m 2 min 0 min 824 W/m 12,9 km/h (3 Bft) 91,49 %
12.05.2022 14:38 20,8 C 22,8 C 17,2 C 54 % 1019,0 hPa 0,0 l/m 2 min 0 min 828 W/m 12,9 km/h (3 Bft) 95,74 %
12.05.2022 14:40 20,8 C 22,8 C 17,2 C 53 % 1019,0 hPa 0,0 l/m 2 min 0 min 796 W/m 6,4 km/h (2 Bft) 95,74 %
12.05.2022 14:42 20,8 C 22,8 C 17,2 C 54 % 1018,9 hPa 0,0 l/m 2 min 0 min 799 W/m 9,7 km/h (2 Bft) 95,74 %
12.05.2022 14:44 20,9 C 23,3 C 17,8 C 54 % 1019,0 hPa 0,0 l/m 2 min 0 min 752 W/m 22,5 km/h (4 Bft) 95,65 %
12.05.2022 14:46 21,0 C 23,3 C 17,8 C 53 % 1019,0 hPa 0,0 l/m 2 min 0 min 736 W/m 16,1 km/h (3 Bft) 93,62 %
12.05.2022 14:48 21,1 C 23,3 C 17,8 C 52 % 1018,9 hPa 0,0 l/m 2 min 0 min 726 W/m 16,1 km/h (3 Bft) 97,87 %
12.05.2022 14:50 21,1 C 23,3 C 17,8 C 52 % 1019,0 hPa 0,0 l/m 2 min 0 min 708 W/m 12,9 km/h (3 Bft) 97,87 %
12.05.2022 14:52 21,1 C 22,8 C 17,8 C 51 % 1019,2 hPa 0,0 l/m 2 min 0 min 725 W/m 22,5 km/h (4 Bft) 97,87 %
12.05.2022 14:54 21,1 C 22,8 C 17,8 C 51 % 1018,9 hPa 0,0 l/m 2 min 0 min 765 W/m 22,5 km/h (4 Bft) 97,87 %
12.05.2022 14:56 21,0 C 22,8 C 17,8 C 51 % 1019,0 hPa 0,0 l/m 2 min 0 min 661 W/m 19,3 km/h (3 Bft) 97,83 %
12.05.2022 14:58 21,1 C 23,3 C 17,8 C 51 % 1018,9 hPa 0,0 l/m 2 min 0 min 722 W/m 12,9 km/h (3 Bft) 97,87 %
12.05.2022 15:00 21,0 C 22,8 C 17,8 C 50 % 1019,0 hPa 0,0 l/m 2 min 0 min 656 W/m 22,5 km/h (4 Bft) 97,87 %
12.05.2022 15:02 20,9 C 22,2 C 17,2 C 51 % 1018,9 hPa 0,0 l/m 2 min 0 min 444 W/m 19,3 km/h (3 Bft) 97,87 %
12.05.2022 15:04 20,8 C 21,7 C 17,2 C 51 % 1018,9 hPa 0,0 l/m 0 min 0 min 362 W/m 12,9 km/h (3 Bft) 97,87 %
12.05.2022 15:06 20,8 C 22,2 C 17,2 C 53 % 1018,9 hPa 0,0 l/m 2 min 0 min 687 W/m 12,9 km/h (3 Bft) 97,87 %
12.05.2022 15:08 20,8 C 22,2 C 17,2 C 50 % 1019,0 hPa 0,0 l/m 2 min 0 min 794 W/m 19,3 km/h (3 Bft) 97,83 %
12.05.2022 15:10 20,8 C 22,8 C 17,2 C 51 % 1018,9 hPa 0,0 l/m 2 min 0 min 786 W/m 6,4 km/h (2 Bft) 97,87 %
12.05.2022 15:12 20,9 C 22,8 C 17,2 C 51 % 1018,8 hPa 0,0 l/m 2 min 0 min 726 W/m 12,9 km/h (3 Bft) 97,87 %
12.05.2022 15:14 20,9 C 22,8 C 17,8 C 52 % 1018,8 hPa 0,0 l/m 2 min 0 min 693 W/m 16,1 km/h (3 Bft) 97,87 %
12.05.2022 15:16 20,9 C 22,2 C 17,2 C 52 % 1018,8 hPa 0,0 l/m 2 min 0 min 718 W/m 19,3 km/h (3 Bft) 95,74 %
12.05.2022 15:18 20,9 C 22,8 C 17,2 C 52 % 1018,8 hPa 0,0 l/m 2 min 0 min 764 W/m 16,1 km/h (3 Bft) 97,83 %
12.05.2022 15:20 20,9 C 22,8 C 17,2 C 50 % 1018,7 hPa 0,0 l/m 2 min 0 min 737 W/m 16,1 km/h (3 Bft) 97,87 %
12.05.2022 15:22 21,0 C 22,8 C 17,2 C 52 % 1018,7 hPa 0,0 l/m 2 min 0 min 630 W/m 16,1 km/h (3 Bft) 97,87 %
12.05.2022 15:24 21,1 C 23,3 C 17,8 C 53 % 1018,7 hPa 0,0 l/m 2 min 0 min 608 W/m 12,9 km/h (3 Bft) 97,87 %
12.05.2022 15:26 21,1 C 22,2 C 17,2 C 52 % 1018,6 hPa 0,0 l/m 2 min 0 min 565 W/m 16,1 km/h (3 Bft) 100,00 %
12.05.2022 15:28 21,0 C 21,7 C 17,2 C 52 % 1018,6 hPa 0,0 l/m 2 min 0 min 435 W/m 12,9 km/h (3 Bft) 100,00 %
12.05.2022 15:30 20,9 C 22,2 C 17,2 C 53 % 1018,5 hPa 0,0 l/m 2 min 0 min 664 W/m 9,7 km/h (2 Bft) 100,00 %
12.05.2022 15:32 20,8 C 22,2 C 17,2 C 52 % 1018,5 hPa 0,0 l/m 2 min 0 min 611 W/m 16,1 km/h (3 Bft) 100,00 %
12.05.2022 15:34 20,8 C 22,2 C 17,2 C 53 % 1018,5 hPa 0,0 l/m 2 min 0 min 552 W/m 12,9 km/h (3 Bft) 100,00 %
12.05.2022 15:36 20,9 C 22,2 C 17,2 C 52 % 1018,5 hPa 0,0 l/m 2 min 0 min 519 W/m 6,4 km/h (2 Bft) 100,00 %
12.05.2022 15:38 20,9 C 22,2 C 17,2 C 52 % 1018,5 hPa 0,0 l/m 2 min 0 min 540 W/m 16,1 km/h (3 Bft) 100,00 %
12.05.2022 15:40 20,9 C 21,7 C 17,2 C 51 % 1018,6 hPa 0,0 l/m 2 min 0 min 535 W/m 16,1 km/h (3 Bft) 100,00 %
12.05.2022 15:42 20,8 C 21,7 C 17,2 C 51 % 1018,6 hPa 0,0 l/m 2 min 0 min 489 W/m 6,4 km/h (2 Bft) 100,00 %
12.05.2022 15:44 20,8 C 21,7 C 17,2 C 52 % 1018,5 hPa 0,0 l/m 2 min 0 min 457 W/m 12,9 km/h (3 Bft) 100,00 %
12.05.2022 15:46 20,7 C 21,7 C 17,2 C 52 % 1018,5 hPa 0,0 l/m 2 min 0 min 436 W/m 6,4 km/h (2 Bft) 100,00 %
12.05.2022 15:48 20,7 C 21,7 C 17,2 C 51 % 1018,5 hPa 0,0 l/m 2 min 0 min 381 W/m 12,9 km/h (3 Bft) 97,87 %
12.05.2022 15:50 20,7 C 21,1 C 17,2 C 51 % 1018,6 hPa 0,0 l/m 2 min 0 min 380 W/m 19,3 km/h (3 Bft) 100,00 %
12.05.2022 15:52 20,7 C 21,1 C 17,2 C 51 % 1018,6 hPa 0,0 l/m 2 min 0 min 439 W/m 22,5 km/h (4 Bft) 100,00 %
12.05.2022 15:54 20,6 C 21,1 C 17,2 C 50 % 1018,6 hPa 0,0 l/m 2 min 0 min 433 W/m 16,1 km/h (3 Bft) 100,00 %
12.05.2022 15:56 20,6 C 21,7 C 17,2 C 52 % 1018,5 hPa 0,0 l/m 2 min 0 min 407 W/m 6,4 km/h (2 Bft) 100,00 %
12.05.2022 15:58 20,6 C 21,7 C 17,2 C 52 % 1018,5 hPa 0,0 l/m 2 min 0 min 425 W/m 6,4 km/h (2 Bft) 100,00 %
12.05.2022 16:00 20,7 C 22,2 C 17,2 C 52 % 1018,5 hPa 0,0 l/m 2 min 0 min 524 W/m 12,9 km/h (3 Bft) 100,00 %
12.05.2022 16:02 20,7 C 22,8 C 17,2 C 52 % 1018,5 hPa 0,0 l/m 2 min 0 min 592 W/m 12,9 km/h (3 Bft) 100,00 %
12.05.2022 16:04 20,8 C 22,8 C 17,8 C 52 % 1018,5 hPa 0,0 l/m 2 min 0 min 552 W/m 9,7 km/h (2 Bft) 95,74 %
12.05.2022 16:06 20,8 C 22,2 C 17,2 C 51 % 1018,5 hPa 0,0 l/m 2 min 0 min 462 W/m 16,1 km/h (3 Bft) 100,00 %
12.05.2022 16:08 20,7 C 22,2 C 17,2 C 51 % 1018,6 hPa 0,0 l/m 2 min 0 min 468 W/m 16,1 km/h (3 Bft) 100,00 %
12.05.2022 16:10 20,7 C 22,2 C 17,2 C 52 % 1018,5 hPa 0,0 l/m 2 min 0 min 450 W/m 16,1 km/h (3 Bft) 95,74 %
12.05.2022 16:12 20,7 C 21,7 C 17,2 C 51 % 1018,5 hPa 0,0 l/m 2 min 0 min 433 W/m 12,9 km/h (3 Bft) 95,74 %
12.05.2022 16:14 20,6 C 21,7 C 17,2 C 51 % 1018,5 hPa 0,0 l/m 2 min 0 min 477 W/m 12,9 km/h (3 Bft) 93,62 %
12.05.2022 16:16 20,6 C 21,7 C 17,2 C 51 % 1018,5 hPa 0,0 l/m 2 min 0 min 452 W/m 16,1 km/h (3 Bft) 97,87 %
12.05.2022 16:18 20,6 C 21,7 C 17,2 C 51 % 1018,5 hPa 0,0 l/m 2 min 0 min 412 W/m 6,4 km/h (2 Bft) 97,83 %
12.05.2022 16:20 20,6 C 21,7 C 17,2 C 51 % 1018,5 hPa 0,0 l/m 2 min 0 min 428 W/m 16,1 km/h (3 Bft) 95,74 %
12.05.2022 16:22 20,6 C 21,7 C 17,2 C 51 % 1018,5 hPa 0,0 l/m 2 min 0 min 444 W/m 9,7 km/h (2 Bft) 95,74 %
12.05.2022 16:24 20,6 C 21,1 C 17,2 C 51 % 1018,4 hPa 0,0 l/m 2 min 0 min 407 W/m 12,9 km/h (3 Bft) 95,74 %
12.05.2022 16:26 20,6 C 21,7 C 17,2 C 52 % 1018,5 hPa 0,0 l/m 2 min 0 min 426 W/m 9,7 km/h (2 Bft) 95,74 %
12.05.2022 16:28 20,6 C 21,7 C 16,7 C 52 % 1018,5 hPa 0,0 l/m 2 min 0 min 438 W/m 12,9 km/h (3 Bft) 93,62 %
12.05.2022 16:30 20,6 C 21,7 C 16,7 C 52 % 1018,5 hPa 0,0 l/m 2 min 0 min 421 W/m 9,7 km/h (2 Bft) 95,65 %
12.05.2022 16:32 20,6 C 21,7 C 17,2 C 53 % 1018,4 hPa 0,0 l/m 2 min 0 min 445 W/m 6,4 km/h (2 Bft) 95,74 %
12.05.2022 16:34 20,6 C 22,2 C 17,2 C 53 % 1018,5 hPa 0,0 l/m 2 min 0 min 490 W/m 12,9 km/h (3 Bft) 95,74 %
12.05.2022 16:36 20,6 C 22,8 C 17,2 C 53 % 1018,5 hPa 0,0 l/m 2 min 0 min 500 W/m 12,9 km/h (3 Bft) 93,62 %
12.05.2022 16:38 20,7 C 22,2 C 17,2 C 52 % 1018,4 hPa 0,0 l/m 2 min 0 min 504 W/m 16,1 km/h (3 Bft) 95,74 %
12.05.2022 16:40 20,7 C 22,2 C 17,2 C 52 % 1018,5 hPa 0,0 l/m 2 min 0 min 503 W/m 12,9 km/h (3 Bft) 95,74 %
12.05.2022 16:42 20,7 C 22,2 C 17,2 C 52 % 1018,4 hPa 0,0 l/m 2 min 0 min 475 W/m 9,7 km/h (2 Bft) 95,65 %
12.05.2022 16:44 20,7 C 22,2 C 17,2 C 53 % 1018,3 hPa 0,0 l/m 2 min 0 min 447 W/m 9,7 km/h (2 Bft) 93,62 %
12.05.2022 16:46 20,7 C 22,8 C 17,2 C 52 % 1018,4 hPa 0,0 l/m 2 min 0 min 485 W/m 9,7 km/h (2 Bft) 95,74 %
12.05.2022 16:48 20,8 C 22,8 C 17,2 C 52 % 1018,3 hPa 0,0 l/m 2 min 0 min 442 W/m 6,4 km/h (2 Bft) 95,74 %
12.05.2022 16:50 20,8 C 22,8 C 17,2 C 51 % 1018,3 hPa 0,0 l/m 2 min 0 min 422 W/m 9,7 km/h (2 Bft) 95,74 %
12.05.2022 16:52 20,8 C 23,3 C 17,2 C 52 % 1018,3 hPa 0,0 l/m 2 min 0 min 518 W/m 19,3 km/h (3 Bft) 95,74 %
12.05.2022 16:54 20,8 C 23,3 C 17,2 C 51 % 1018,4 hPa 0,0 l/m 2 min 0 min 536 W/m 16,1 km/h (3 Bft) 97,83 %
12.05.2022 16:56 20,8 C 23,9 C 17,2 C 52 % 1018,3 hPa 0,0 l/m 2 min 0 min 523 W/m 12,9 km/h (3 Bft) 100,00 %
12.05.2022 16:58 20,9 C 23,3 C 17,2 C 52 % 1018,2 hPa 0,0 l/m 2 min 0 min 451 W/m 9,7 km/h (2 Bft) 100,00 %
12.05.2022 17:00 20,9 C 22,8 C 17,2 C 50 % 1018,3 hPa 0,0 l/m 2 min 0 min 441 W/m 16,1 km/h (3 Bft) 97,87 %
12.05.2022 17:02 20,8 C 22,8 C 17,2 C 50 % 1018,3 hPa 0,0 l/m 2 min 0 min 501 W/m 16,1 km/h (3 Bft) 97,87 %
12.05.2022 17:04 20,8 C 23,3 C 17,2 C 50 % 1018,3 hPa 0,0 l/m 2 min 0 min 526 W/m 12,9 km/h (3 Bft) 100,00 %
12.05.2022 17:06 20,8 C 22,8 C 17,2 C 50 % 1018,3 hPa 0,0 l/m 2 min 0 min 464 W/m 12,9 km/h (3 Bft) 100,00 %
12.05.2022 17:08 20,7 C 22,2 C 17,2 C 50 % 1018,3 hPa 0,0 l/m 2 min 0 min 410 W/m 12,9 km/h (3 Bft) 100,00 %
12.05.2022 17:10 20,7 C 22,2 C 16,7 C 50 % 1018,3 hPa 0,0 l/m 2 min 0 min 380 W/m 12,9 km/h (3 Bft) 97,87 %
12.05.2022 17:12 20,6 C 21,7 C 16,7 C 50 % 1018,3 hPa 0,0 l/m 2 min 0 min 346 W/m 16,1 km/h (3 Bft) 97,87 %
12.05.2022 17:14 20,6 C 21,7 C 16,7 C 51 % 1018,3 hPa 0,0 l/m 2 min 0 min 356 W/m 12,9 km/h (3 Bft) 100,00 %
12.05.2022 17:16 20,6 C 21,7 C 16,7 C 52 % 1018,3 hPa 0,0 l/m 2 min 0 min 346 W/m 6,4 km/h (2 Bft) 100,00 %
12.05.2022 17:18 20,6 C 21,7 C 16,7 C 52 % 1018,3 hPa 0,0 l/m 2 min 0 min 432 W/m 6,4 km/h (2 Bft) 100,00 %
12.05.2022 17:20 20,7 C 22,8 C 17,2 C 53 % 1018,3 hPa 0,0 l/m 2 min 0 min 428 W/m 9,7 km/h (2 Bft) 100,00 %
12.05.2022 17:22 20,7 C 22,8 C 17,2 C 53 % 1018,2 hPa 0,0 l/m 2 min 0 min 482 W/m 9,7 km/h (2 Bft) 100,00 %
12.05.2022 17:24 20,8 C 23,9 C 17,2 C 52 % 1018,2 hPa 0,0 l/m 2 min 0 min 516 W/m 6,4 km/h (2 Bft) 100,00 %
12.05.2022 17:26 20,8 C 23,9 C 17,2 C 52 % 1018,2 hPa 0,0 l/m 2 min 0 min 537 W/m 16,1 km/h (3 Bft) 100,00 %
12.05.2022 17:28 20,9 C 23,9 C 17,2 C 51 % 1018,2 hPa 0,0 l/m 2 min 0 min 503 W/m 12,9 km/h (3 Bft) 97,87 %
12.05.2022 17:30 20,8 C 24,4 C 17,8 C 51 % 1018,2 hPa 0,0 l/m 2 min 0 min 549 W/m 12,9 km/h (3 Bft) 100,00 %
12.05.2022 17:32 20,9 C 25,0 C 17,8 C 51 % 1018,3 hPa 0,0 l/m 2 min 0 min 628 W/m 12,9 km/h (3 Bft) 97,87 %
12.05.2022 17:34 21,1 C 25,0 C 17,8 C 51 % 1018,2 hPa 0,0 l/m 2 min 0 min 539 W/m 19,3 km/h (3 Bft) 100,00 %
12.05.2022 17:36 21,1 C 25,0 C 17,8 C 51 % 1018,1 hPa 0,0 l/m 2 min 0 min 489 W/m 12,9 km/h (3 Bft) 100,00 %
12.05.2022 17:38 21,2 C 25,0 C 18,3 C 51 % 1018,0 hPa 0,0 l/m 2 min 0 min 430 W/m 19,3 km/h (3 Bft) 97,87 %
12.05.2022 17:40 21,3 C 23,9 C 17,8 C 50 % 1018,0 hPa 0,0 l/m 2 min 0 min 367 W/m 16,1 km/h (3 Bft) 100,00 %
12.05.2022 17:42 21,2 C 22,8 C 17,8 C 50 % 1018,2 hPa 0,0 l/m 2 min 0 min 355 W/m 16,1 km/h (3 Bft) 100,00 %
12.05.2022 17:44 21,3 C 22,8 C 17,8 C 51 % 1018,1 hPa 0,0 l/m 2 min 0 min 386 W/m 12,9 km/h (3 Bft) 100,00 %
12.05.2022 17:46 21,3 C 22,8 C 17,2 C 50 % 1018,0 hPa 0,0 l/m 2 min 0 min 414 W/m 12,9 km/h (3 Bft) 100,00 %
12.05.2022 17:48 21,3 C 23,3 C 17,2 C 49 % 1017,9 hPa 0,0 l/m 2 min 0 min 395 W/m 12,9 km/h (3 Bft) 97,87 %
12.05.2022 17:50 21,3 C 23,3 C 17,2 C 49 % 1018,0 hPa 0,0 l/m 2 min 0 min 359 W/m 12,9 km/h (3 Bft) 100,00 %
12.05.2022 17:52 21,3 C 22,8 C 17,2 C 50 % 1018,0 hPa 0,0 l/m 2 min 0 min 319 W/m 19,3 km/h (3 Bft) 100,00 %
12.05.2022 17:54 21,3 C 22,8 C 17,2 C 50 % 1018,0 hPa 0,0 l/m 2 min 0 min 294 W/m 16,1 km/h (3 Bft) 100,00 %
12.05.2022 17:56 21,3 C 22,2 C 17,2 C 50 % 1018,0 hPa 0,0 l/m 2 min 0 min 273 W/m 25,7 km/h (4 Bft) 97,87 %
12.05.2022 17:58 21,3 C 21,7 C 17,2 C 50 % 1018,0 hPa 0,0 l/m 2 min 0 min 249 W/m 12,9 km/h (3 Bft) 97,87 %
12.05.2022 18:00 21,2 C 21,7 C 17,2 C 50 % 1018,0 hPa 0,0 l/m 0 min 0 min 211 W/m 12,9 km/h (3 Bft) 97,87 %
12.05.2022 18:02 21,1 C 21,1 C 17,2 C 50 % 1018,0 hPa 0,0 l/m 2 min 0 min 240 W/m 12,9 km/h (3 Bft) 95,74 %
12.05.2022 18:04 21,0 C 21,1 C 17,2 C 50 % 1018,0 hPa 0,0 l/m 2 min 0 min 245 W/m 12,9 km/h (3 Bft) 97,87 %
12.05.2022 18:07 20,9 C 21,1 C 17,2 C 50 % 1018,0 hPa 0,0 l/m 3 min 0 min 233 W/m 12,9 km/h (3 Bft) 98,57 %
12.05.2022 18:10 20,9 C 21,1 C 16,7 C 51 % 1018,0 hPa 0,0 l/m 3 min 0 min 228 W/m 6,4 km/h (2 Bft) 97,14 %
12.05.2022 18:12 20,8 C 21,7 C 16,7 C 51 % 1018,0 hPa 0,0 l/m 2 min 0 min 238 W/m 9,7 km/h (2 Bft) 97,87 %
12.05.2022 18:14 20,8 C 21,7 C 17,2 C 51 % 1018,0 hPa 0,0 l/m 2 min 0 min 250 W/m 12,9 km/h (3 Bft) 97,87 %
12.05.2022 18:16 20,8 C 21,7 C 17,2 C 50 % 1018,0 hPa 0,0 l/m 2 min 0 min 271 W/m 22,5 km/h (4 Bft) 95,74 %
12.05.2022 18:18 20,8 C 21,7 C 17,2 C 51 % 1018,0 hPa 0,0 l/m 2 min 0 min 275 W/m 16,1 km/h (3 Bft) 93,48 %
12.05.2022 18:20 20,7 C 21,7 C 16,7 C 50 % 1017,9 hPa 0,0 l/m 2 min 0 min 306 W/m 12,9 km/h (3 Bft) 97,87 %
12.05.2022 18:22 20,7 C 21,7 C 16,7 C 50 % 1017,9 hPa 0,0 l/m 2 min 0 min 299 W/m 9,7 km/h (2 Bft) 100,00 %
12.05.2022 18:24 20,8 C 21,7 C 17,2 C 49 % 1017,9 hPa 0,0 l/m 2 min 0 min 269 W/m 16,1 km/h (3 Bft) 97,87 %
12.05.2022 18:26 20,8 C 21,7 C 16,7 C 50 % 1018,0 hPa 0,0 l/m 2 min 0 min 254 W/m 16,1 km/h (3 Bft) 95,74 %
12.05.2022 18:28 20,8 C 21,1 C 16,7 C 50 % 1018,0 hPa 0,0 l/m 2 min 0 min 222 W/m 9,7 km/h (2 Bft) 95,74 %
12.05.2022 18:30 20,7 C 21,1 C 16,7 C 49 % 1017,9 hPa 0,0 l/m 2 min 0 min 224 W/m 12,9 km/h (3 Bft) 93,48 %
12.05.2022 18:32 20,7 C 21,1 C 16,7 C 51 % 1017,9 hPa 0,0 l/m 2 min 0 min 218 W/m 12,9 km/h (3 Bft) 95,74 %
12.05.2022 18:34 20,6 C 21,1 C 16,7 C 51 % 1017,9 hPa 0,0 l/m 2 min 0 min 233 W/m 12,9 km/h (3 Bft) 95,74 %
12.05.2022 18:36 20,7 C 21,1 C 16,7 C 51 % 1017,9 hPa 0,0 l/m 2 min 0 min 252 W/m 6,4 km/h (2 Bft) 93,62 %
12.05.2022 18:38 20,7 C 21,1 C 16,7 C 49 % 1017,9 hPa 0,0 l/m 2 min 0 min 257 W/m 12,9 km/h (3 Bft) 95,74 %
12.05.2022 18:40 20,7 C 21,7 C 16,7 C 50 % 1017,9 hPa 0,0 l/m 2 min 0 min 263 W/m 6,4 km/h (2 Bft) 93,62 %
12.05.2022 18:42 20,7 C 21,7 C 16,7 C 51 % 1017,9 hPa 0,0 l/m 2 min 0 min 258 W/m 6,4 km/h (2 Bft) 93,48 %
12.05.2022 18:44 20,7 C 22,2 C 16,7 C 50 % 1017,8 hPa 0,0 l/m 2 min 0 min 266 W/m 6,4 km/h (2 Bft) 91,49 %
12.05.2022 18:46 20,7 C 22,2 C 16,7 C 50 % 1017,8 hPa 0,0 l/m 2 min 0 min 276 W/m 9,7 km/h (2 Bft) 91,49 %
12.05.2022 18:48 20,7 C 21,7 C 16,7 C 50 % 1017,8 hPa 0,0 l/m 2 min 0 min 224 W/m 12,9 km/h (3 Bft) 93,62 %
12.05.2022 18:50 20,6 C 21,1 C 16,7 C 50 % 1017,8 hPa 0,0 l/m 2 min 0 min 181 W/m 16,1 km/h (3 Bft) 93,62 %
12.05.2022 18:52 20,6 C 21,1 C 16,7 C 49 % 1017,8 hPa 0,0 l/m 2 min 0 min 195 W/m 16,1 km/h (3 Bft) 95,74 %
12.05.2022 18:54 20,5 C 21,1 C 16,7 C 50 % 1017,8 hPa 0,0 l/m 2 min 0 min 207 W/m 16,1 km/h (3 Bft) 93,48 %
12.05.2022 18:56 20,4 C 21,1 C 16,7 C 50 % 1017,9 hPa 0,0 l/m 2 min 0 min 201 W/m 22,5 km/h (4 Bft) 95,74 %
12.05.2022 18:58 20,3 C 20,6 C 16,7 C 50 % 1017,8 hPa 0,0 l/m 2 min 0 min 172 W/m 16,1 km/h (3 Bft) 93,62 %
12.05.2022 19:00 20,2 C 20,6 C 16,1 C 50 % 1017,8 hPa 0,0 l/m 2 min 0 min 178 W/m 12,9 km/h (3 Bft) 95,74 %
12.05.2022 19:02 20,2 C 21,1 C 16,1 C 50 % 1017,7 hPa 0,0 l/m 2 min 0 min 209 W/m 9,7 km/h (2 Bft) 96,23 %
12.05.2022 19:04 20,2 C 21,1 C 16,1 C 50 % 1017,7 hPa 0,0 l/m 2 min 0 min 227 W/m 6,4 km/h (2 Bft) 100,00 %
12.05.2022 19:06 20,2 C 21,1 C 16,1 C 51 % 1017,7 hPa 0,0 l/m 2 min 0 min 217 W/m 12,9 km/h (3 Bft) 94,83 %
12.05.2022 19:08 20,2 C 20,6 C 16,1 C 51 % 1017,7 hPa 0,0 l/m 2 min 0 min 163 W/m 16,1 km/h (3 Bft) 97,87 %
12.05.2022 19:10 20,2 C 20,0 C 16,1 C 51 % 1017,7 hPa 0,0 l/m 0 min 0 min 142 W/m 16,1 km/h (3 Bft) 97,87 %
12.05.2022 19:12 20,2 C 20,0 C 16,1 C 50 % 1017,7 hPa 0,0 l/m 2 min 0 min 155 W/m 16,1 km/h (3 Bft) 97,14 %
12.05.2022 19:14 20,1 C 20,0 C 16,1 C 51 % 1017,7 hPa 0,0 l/m 2 min 0 min 154 W/m 12,9 km/h (3 Bft) 98,28 %
12.05.2022 19:16 20,1 C 19,4 C 16,1 C 51 % 1017,6 hPa 0,0 l/m 2 min 0 min 148 W/m 12,9 km/h (3 Bft) 97,87 %
12.05.2022 19:18 20,1 C 19,4 C 16,1 C 52 % 1017,6 hPa 0,0 l/m 0 min 0 min 134 W/m 16,1 km/h (3 Bft) 95,74 %
12.05.2022 19:20 20,0 C 19,4 C 16,1 C 52 % 1017,7 hPa 0,0 l/m 0 min 0 min 122 W/m 16,1 km/h (3 Bft) 100,00 %
12.05.2022 19:22 20,0 C 19,4 C 16,1 C 53 % 1017,7 hPa 0,0 l/m 0 min 0 min 113 W/m 6,4 km/h (2 Bft) 95,74 %
12.05.2022 19:24 20,0 C 19,4 C 16,1 C 52 % 1017,7 hPa 0,0 l/m 0 min 0 min 107 W/m 6,4 km/h (2 Bft) 100,00 %
12.05.2022 19:26 19,9 C 19,4 C 16,1 C 52 % 1017,7 hPa 0,0 l/m 0 min 0 min 104 W/m 12,9 km/h (3 Bft) 100,00 %
12.05.2022 19:28 19,9 C 19,4 C 15,6 C 52 % 1017,6 hPa 0,0 l/m 0 min 0 min 110 W/m 9,7 km/h (2 Bft) 100,00 %
12.05.2022 19:30 19,9 C 19,4 C 15,6 C 52 % 1017,5 hPa 0,0 l/m 0 min 0 min 118 W/m 6,4 km/h (2 Bft) 100,00 %
12.05.2022 19:32 19,9 C 19,4 C 15,6 C 53 % 1017,6 hPa 0,0 l/m 2 min 0 min 123 W/m 6,4 km/h (2 Bft) 97,14 %
12.05.2022 19:34 19,9 C 19,4 C 15,6 C 53 % 1017,6 hPa 0,0 l/m 2 min 0 min 133 W/m 12,9 km/h (3 Bft) 100,00 %
12.05.2022 19:36 19,9 C 19,4 C 16,1 C 53 % 1017,7 hPa 0,0 l/m 2 min 0 min 144 W/m 19,3 km/h (3 Bft) 97,87 %
12.05.2022 19:38 19,9 C 19,4 C 16,1 C 52 % 1017,7 hPa 0,0 l/m 2 min 0 min 140 W/m 12,9 km/h (3 Bft) 100,00 %
12.05.2022 19:40 19,9 C 19,4 C 16,1 C 52 % 1017,7 hPa 0,0 l/m 2 min 0 min 139 W/m 6,4 km/h (2 Bft) 97,22 %
12.05.2022 19:42 19,9 C 19,4 C 16,1 C 52 % 1017,7 hPa 0,0 l/m 2 min 0 min 141 W/m 9,7 km/h (2 Bft) 100,00 %
12.05.2022 19:44 19,9 C 20,0 C 16,1 C 52 % 1017,7 hPa 0,0 l/m 2 min 0 min 138 W/m 9,7 km/h (2 Bft) 100,00 %
12.05.2022 19:46 20,0 C 19,4 C 16,1 C 52 % 1017,7 hPa 0,0 l/m 2 min 0 min 126 W/m 9,7 km/h (2 Bft) 100,00 %
12.05.2022 19:48 20,0 C 19,4 C 16,1 C 52 % 1017,7 hPa 0,0 l/m 2 min 0 min 109 W/m 6,4 km/h (2 Bft) 100,00 %
12.05.2022 19:50 20,0 C 19,4 C 16,1 C 52 % 1017,8 hPa 0,0 l/m 2 min 0 min 97 W/m 6,4 km/h (2 Bft) 100,00 %
12.05.2022 19:52 19,9 C 19,4 C 15,6 C 53 % 1017,8 hPa 0,0 l/m 2 min 0 min 93 W/m 12,9 km/h (3 Bft) 100,00 %
12.05.2022 19:54 19,9 C 19,4 C 15,6 C 53 % 1017,8 hPa 0,0 l/m 2 min 0 min 92 W/m 12,9 km/h (3 Bft) 100,00 %
12.05.2022 19:56 19,9 C 19,4 C 15,6 C 53 % 1017,8 hPa 0,0 l/m 2 min 0 min 97 W/m 6,4 km/h (2 Bft) 100,00 %
12.05.2022 19:58 19,8 C 19,4 C 15,6 C 54 % 1017,7 hPa 0,0 l/m 2 min 0 min 104 W/m 6,4 km/h (2 Bft) 100,00 %
12.05.2022 20:00 19,8 C 19,4 C 15,6 C 53 % 1017,7 hPa 0,0 l/m 2 min 0 min 110 W/m 12,9 km/h (3 Bft) 100,00 %
12.05.2022 20:02 19,8 C 19,4 C 15,6 C 53 % 1017,8 hPa 0,0 l/m 2 min 0 min 115 W/m 12,9 km/h (3 Bft) 97,87 %
12.05.2022 20:04 19,8 C 19,4 C 15,6 C 53 % 1017,7 hPa 0,0 l/m 2 min 0 min 116 W/m 9,7 km/h (2 Bft) 100,00 %
12.05.2022 20:06 19,8 C 19,4 C 15,6 C 53 % 1017,8 hPa 0,0 l/m 2 min 0 min 113 W/m 16,1 km/h (3 Bft) 100,00 %
12.05.2022 20:08 19,7 C 19,4 C 15,6 C 53 % 1017,7 hPa 0,0 l/m 2 min 0 min 105 W/m 12,9 km/h (3 Bft) 100,00 %
12.05.2022 20:10 19,7 C 19,4 C 15,6 C 54 % 1017,7 hPa 0,0 l/m 2 min 0 min 95 W/m 12,9 km/h (3 Bft) 100,00 %
12.05.2022 20:12 19,7 C 19,4 C 15,6 C 54 % 1017,7 hPa 0,0 l/m 2 min 0 min 89 W/m 6,4 km/h (2 Bft) 97,87 %
12.05.2022 20:14 19,7 C 19,4 C 15,6 C 54 % 1017,6 hPa 0,0 l/m 2 min 0 min 84 W/m 6,4 km/h (2 Bft) 100,00 %
12.05.2022 20:16 19,7 C 19,4 C 15,6 C 54 % 1017,7 hPa 0,0 l/m 2 min 0 min 82 W/m 6,4 km/h (2 Bft) 100,00 %
12.05.2022 20:18 19,7 C 18,9 C 15,6 C 54 % 1017,7 hPa 0,0 l/m 2 min 0 min 80 W/m 6,4 km/h (2 Bft) 100,00 %
12.05.2022 20:20 19,7 C 18,9 C 15,6 C 54 % 1017,7 hPa 0,0 l/m 2 min 0 min 74 W/m 6,4 km/h (2 Bft) 95,74 %
12.05.2022 20:22 19,7 C 18,9 C 15,6 C 54 % 1017,7 hPa 0,0 l/m 2 min 0 min 65 W/m 6,4 km/h (2 Bft) 100,00 %
12.05.2022 20:24 19,6 C 18,9 C 15,6 C 54 % 1017,7 hPa 0,0 l/m 2 min 0 min 57 W/m 6,4 km/h (2 Bft) 100,00 %
12.05.2022 20:26 19,6 C 18,9 C 15,6 C 54 % 1017,7 hPa 0,0 l/m 0 min 0 min 49 W/m 6,4 km/h (2 Bft) 100,00 %
12.05.2022 20:28 19,6 C 18,9 C 15,0 C 54 % 1017,7 hPa 0,0 l/m 0 min 0 min 42 W/m 6,4 km/h (2 Bft) 100,00 %
12.05.2022 20:30 19,5 C 18,9 C 15,0 C 54 % 1017,7 hPa 0,0 l/m 0 min 0 min 38 W/m 6,4 km/h (2 Bft) 97,87 %
12.05.2022 20:32 19,5 C 18,9 C 15,0 C 55 % 1017,7 hPa 0,0 l/m 0 min 0 min 34 W/m 9,7 km/h (2 Bft) 97,87 %
12.05.2022 20:34 19,5 C 18,9 C 15,0 C 56 % 1017,7 hPa 0,0 l/m 0 min 0 min 32 W/m 3,2 km/h (1 Bft) 95,74 %
12.05.2022 20:36 19,4 C 18,3 C 15,0 C 56 % 1017,7 hPa 0,0 l/m 0 min 0 min 30 W/m 3,2 km/h (1 Bft) 97,87 %
12.05.2022 20:38 19,4 C 18,3 C 15,0 C 56 % 1017,8 hPa 0,0 l/m 0 min 0 min 27 W/m 6,4 km/h (2 Bft) 97,87 %
12.05.2022 20:40 19,3 C 18,3 C 14,4 C 58 % 1017,7 hPa 0,0 l/m 0 min 0 min 26 W/m 3,2 km/h (1 Bft) 97,83 %
12.05.2022 20:42 19,3 C 18,3 C 15,0 C 57 % 1017,8 hPa 0,0 l/m 0 min 0 min 24 W/m 6,4 km/h (2 Bft) 97,87 %
12.05.2022 20:44 19,2 C 18,3 C 14,4 C 57 % 1017,8 hPa 0,0 l/m 0 min 0 min 22 W/m 3,2 km/h (1 Bft) 95,74 %
12.05.2022 20:46 19,2 C 18,3 C 14,4 C 57 % 1017,8 hPa 0,0 l/m 0 min 0 min 20 W/m 6,4 km/h (2 Bft) 97,87 %
12.05.2022 20:48 19,1 C 17,8 C 14,4 C 57 % 1017,8 hPa 0,0 l/m 0 min 0 min 19 W/m 3,2 km/h (1 Bft) 97,87 %
12.05.2022 20:50 19,1 C 17,8 C 14,4 C 57 % 1017,7 hPa 0,0 l/m 0 min 0 min 17 W/m 3,2 km/h (1 Bft) 97,87 %
12.05.2022 20:52 19,0 C 17,8 C 14,4 C 58 % 1017,8 hPa 0,0 l/m 0 min 0 min 15 W/m 3,2 km/h (1 Bft) 95,65 %
12.05.2022 20:54 18,9 C 17,8 C 14,4 C 58 % 1017,8 hPa 0,0 l/m 0 min 0 min 14 W/m 3,2 km/h (1 Bft) 95,74 %
12.05.2022 20:56 18,9 C 17,8 C 14,4 C 58 % 1017,8 hPa 0,0 l/m 0 min 0 min 12 W/m 3,2 km/h (1 Bft) 91,49 %
12.05.2022 20:58 18,9 C 17,8 C 14,4 C 58 % 1017,8 hPa 0,0 l/m 0 min 0 min 11 W/m 3,2 km/h (1 Bft) 95,74 %
12.05.2022 21:00 18,8 C 17,8 C 14,4 C 58 % 1017,8 hPa 0,0 l/m 0 min 0 min 10 W/m 3,2 km/h (1 Bft) 93,62 %
12.05.2022 21:02 18,8 C 17,8 C 13,9 C 58 % 1017,8 hPa 0,0 l/m 0 min 0 min 9 W/m 3,2 km/h (1 Bft) 97,87 %
12.05.2022 21:04 18,7 C 17,2 C 13,9 C 58 % 1017,8 hPa 0,0 l/m 0 min 0 min 7 W/m 3,2 km/h (1 Bft) 97,87 %
12.05.2022 21:06 18,7 C 17,2 C 13,9 C 59 % 1017,8 hPa 0,0 l/m 0 min 0 min 7 W/m 0,0 km/h (0 Bft) 97,83 %
12.05.2022 21:08 18,6 C 17,2 C 13,3 C 60 % 1017,9 hPa 0,0 l/m 0 min 0 min 5 W/m 0,0 km/h (0 Bft) 95,74 %
12.05.2022 21:10 18,6 C 17,2 C 13,3 C 60 % 1017,9 hPa 0,0 l/m 0 min 0 min 5 W/m 3,2 km/h (1 Bft) 97,87 %
12.05.2022 21:12 18,5 C 16,7 C 13,3 C 60 % 1017,9 hPa 0,0 l/m 0 min 0 min 5 W/m 3,2 km/h (1 Bft) 97,87 %
12.05.2022 21:14 18,4 C 16,7 C 13,3 C 60 % 1017,9 hPa 0,0 l/m 0 min 0 min 3 W/m 3,2 km/h (1 Bft) 97,87 %
12.05.2022 21:16 18,3 C 16,7 C 13,3 C 61 % 1017,9 hPa 0,0 l/m 0 min 0 min 0 W/m 0,0 km/h (0 Bft) 100,00 %
12.05.2022 21:18 18,2 C 16,7 C 12,8 C 62 % 1017,9 hPa 0,0 l/m 0 min 0 min 0 W/m 3,2 km/h (1 Bft) 97,87 %
12.05.2022 21:20 18,2 C 16,7 C 13,3 C 61 % 1017,9 hPa 0,0 l/m 0 min 0 min 0 W/m 3,2 km/h (1 Bft) 95,74 %
12.05.2022 21:22 18,1 C 16,7 C 13,3 C 61 % 1017,9 hPa 0,0 l/m 0 min 0 min 0 W/m 3,2 km/h (1 Bft) 93,62 %
12.05.2022 21:24 18,1 C 16,7 C 12,8 C 62 % 1017,9 hPa 0,0 l/m 0 min 0 min 0 W/m 0,0 km/h (0 Bft) 97,87 %
12.05.2022 21:26 18,0 C 16,1 C 12,8 C 63 % 1018,0 hPa 0,0 l/m 0 min 0 min 0 W/m 0,0 km/h (0 Bft) 95,74 %
12.05.2022 21:28 17,9 C 16,1 C 12,8 C 63 % 1018,0 hPa 0,0 l/m 0 min 0 min 0 W/m 0,0 km/h (0 Bft) 95,65 %
12.05.2022 21:30 17,9 C 16,1 C 12,8 C 63 % 1018,1 hPa 0,0 l/m 0 min 0 min 0 W/m 0,0 km/h (0 Bft) 95,74 %
12.05.2022 21:32 17,8 C 16,1 C 12,8 C 64 % 1018,0 hPa 0,0 l/m 0 min 0 min 0 W/m 0,0 km/h (0 Bft) 95,74 %
12.05.2022 21:34 17,8 C 16,1 C 12,2 C 64 % 1018,1 hPa 0,0 l/m 0 min 0 min 0 W/m 3,2 km/h (1 Bft) 95,74 %
12.05.2022 21:36 17,7 C 16,1 C 12,2 C 64 % 1018,1 hPa 0,0 l/m 0 min 0 min 0 W/m 0,0 km/h (0 Bft) 93,62 %
12.05.2022 21:38 17,7 C 16,1 C 12,2 C 66 % 1018,1 hPa 0,0 l/m 0 min 0 min 0 W/m 0,0 km/h (0 Bft) 95,74 %
12.05.2022 21:40 17,6 C 15,6 C 11,7 C 66 % 1018,3 hPa 0,0 l/m 0 min 0 min 0 W/m 0,0 km/h (0 Bft) 95,65 %
12.05.2022 21:42 17,6 C 15,6 C 11,7 C 68 % 1018,2 hPa 0,0 l/m 0 min 0 min 0 W/m 0,0 km/h (0 Bft) 95,74 %
12.05.2022 21:44 17,6 C 15,6 C 11,7 C 68 % 1018,3 hPa 0,0 l/m 0 min 0 min 0 W/m 0,0 km/h (0 Bft) 97,87 %
12.05.2022 21:46 17,5 C 15,6 C 11,7 C 69 % 1018,3 hPa 0,0 l/m 0 min 0 min 0 W/m 0,0 km/h (0 Bft) 97,87 %
12.05.2022 21:48 17,4 C 15,0 C 11,7 C 69 % 1018,3 hPa 0,0 l/m 0 min 0 min 0 W/m 0,0 km/h (0 Bft) 97,87 %
12.05.2022 21:50 17,3 C 15,0 C 11,7 C 69 % 1018,3 hPa 0,0 l/m 0 min 0 min 0 W/m 0,0 km/h (0 Bft) 97,87 %
12.05.2022 21:52 17,3 C 15,0 C 11,1 C 70 % 1018,4 hPa 0,0 l/m 0 min 0 min 0 W/m 0,0 km/h (0 Bft) 97,83 %
12.05.2022 21:54 17,1 C 15,0 C 11,1 C 70 % 1018,4 hPa 0,0 l/m 0 min 0 min 0 W/m 0,0 km/h (0 Bft) 97,87 %
12.05.2022 21:56 17,1 C 15,0 C 11,1 C 70 % 1018,4 hPa 0,0 l/m 0 min 0 min 0 W/m 0,0 km/h (0 Bft) 95,74 %
12.05.2022 21:58 17,0 C 14,4 C 11,1 C 71 % 1018,4 hPa 0,0 l/m 0 min 0 min 0 W/m 0,0 km/h (0 Bft) 97,87 %
12.05.2022 22:00 16,9 C 14,4 C 11,1 C 71 % 1018,4 hPa 0,0 l/m 0 min 0 min 0 W/m 0,0 km/h (0 Bft) 97,87 %
12.05.2022 22:02 16,8 C 14,4 C 11,1 C 72 % 1018,4 hPa 0,0 l/m 0 min 0 min 0 W/m 0,0 km/h (0 Bft) 97,87 %
12.05.2022 22:04 16,7 C 14,4 C 11,1 C 72 % 1018,4 hPa 0,0 l/m 0 min 0 min 0 W/m 0,0 km/h (0 Bft) 97,83 %
12.05.2022 22:06 16,6 C 14,4 C 11,1 C 72 % 1018,4 hPa 0,0 l/m 0 min 0 min 0 W/m 0,0 km/h (0 Bft) 97,87 %
12.05.2022 22:08 16,5 C 14,4 C 11,1 C 72 % 1018,4 hPa 0,0 l/m 0 min 0 min 0 W/m 0,0 km/h (0 Bft) 95,74 %
12.05.2022 22:10 16,4 C 14,4 C 11,1 C 72 % 1018,4 hPa 0,0 l/m 0 min 0 min 0 W/m 0,0 km/h (0 Bft) 97,87 %
12.05.2022 22:12 16,3 C 14,4 C 11,1 C 72 % 1018,4 hPa 0,0 l/m 0 min 0 min 0 W/m 0,0 km/h (0 Bft) 93,62 %
12.05.2022 22:14 16,3 C 14,4 C 11,1 C 71 % 1018,4 hPa 0,0 l/m 0 min 0 min 0 W/m 0,0 km/h (0 Bft) 95,74 %
12.05.2022 22:16 16,2 C 14,4 C 11,1 C 71 % 1018,4 hPa 0,0 l/m 0 min 0 min 0 W/m 3,2 km/h (1 Bft) 97,83 %
12.05.2022 22:18 16,2 C 14,4 C 11,1 C 71 % 1018,4 hPa 0,0 l/m 0 min 0 min 0 W/m 0,0 km/h (0 Bft) 95,74 %
12.05.2022 22:20 16,1 C 14,4 C 11,1 C 70 % 1018,4 hPa 0,0 l/m 0 min 0 min 0 W/m 3,2 km/h (1 Bft) 93,62 %
12.05.2022 22:22 16,1 C 14,4 C 11,1 C 70 % 1018,4 hPa 0,0 l/m 0 min 0 min 0 W/m 0,0 km/h (0 Bft) 97,87 %
12.05.2022 22:24 16,1 C 15,0 C 11,1 C 71 % 1018,3 hPa 0,0 l/m 0 min 0 min 0 W/m 3,2 km/h (1 Bft) 97,87 %
12.05.2022 22:26 16,0 C 15,0 C 11,1 C 71 % 1018,4 hPa 0,0 l/m 0 min 0 min 0 W/m 3,2 km/h (1 Bft) 97,83 %
12.05.2022 22:28 15,9 C 14,4 C 11,1 C 70 % 1018,4 hPa 0,0 l/m 0 min 0 min 0 W/m 0,0 km/h (0 Bft) 97,87 %
12.05.2022 22:30 15,9 C 14,4 C 11,1 C 70 % 1018,4 hPa 0,0 l/m 0 min 0 min 0 W/m 0,0 km/h (0 Bft) 95,74 %
12.05.2022 22:32 15,9 C 15,0 C 11,1 C 70 % 1018,4 hPa 0,0 l/m 0 min 0 min 0 W/m 3,2 km/h (1 Bft) 93,62 %
12.05.2022 22:34 15,9 C 15,0 C 11,1 C 70 % 1018,4 hPa 0,0 l/m 0 min 0 min 0 W/m 0,0 km/h (0 Bft) 97,87 %
12.05.2022 22:36 15,9 C 15,0 C 11,1 C 70 % 1018,3 hPa 0,0 l/m 0 min 0 min 0 W/m 3,2 km/h (1 Bft) 97,87 %
12.05.2022 22:38 15,9 C 15,0 C 11,1 C 70 % 1018,3 hPa 0,0 l/m 0 min 0 min 0 W/m 3,2 km/h (1 Bft) 97,83 %
12.05.2022 22:40 15,9 C 15,0 C 11,1 C 70 % 1018,4 hPa 0,0 l/m 0 min 0 min 0 W/m 3,2 km/h (1 Bft) 95,74 %
12.05.2022 22:42 15,9 C 15,0 C 11,1 C 70 % 1018,3 hPa 0,0 l/m 0 min 0 min 0 W/m 3,2 km/h (1 Bft) 97,87 %
12.05.2022 22:44 15,9 C 15,0 C 11,1 C 70 % 1018,4 hPa 0,0 l/m 0 min 0 min 0 W/m 3,2 km/h (1 Bft) 97,87 %
12.05.2022 22:46 15,9 C 15,0 C 11,1 C 70 % 1018,4 hPa 0,0 l/m 0 min 0 min 0 W/m 0,0 km/h (0 Bft) 97,87 %
12.05.2022 22:48 15,9 C 15,0 C 11,1 C 70 % 1018,4 hPa 0,0 l/m 0 min 0 min 0 W/m 3,2 km/h (1 Bft) 100,00 %
12.05.2022 22:50 15,9 C 15,0 C 11,1 C 70 % 1018,4 hPa 0,0 l/m 0 min 0 min 0 W/m 3,2 km/h (1 Bft) 100,00 %
12.05.2022 22:52 15,9 C 15,0 C 11,1 C 70 % 1018,5 hPa 0,0 l/m 0 min 0 min 0 W/m 0,0 km/h (0 Bft) 97,87 %
12.05.2022 22:54 15,9 C 15,0 C 11,1 C 70 % 1018,5 hPa 0,0 l/m 0 min 0 min 0 W/m 0,0 km/h (0 Bft) 100,00 %
12.05.2022 22:56 15,9 C 15,0 C 11,1 C 71 % 1018,6 hPa 0,0 l/m 0 min 0 min 0 W/m 9,7 km/h (2 Bft) 100,00 %
12.05.2022 22:58 15,8 C 15,0 C 11,1 C 71 % 1018,6 hPa 0,0 l/m 0 min 0 min 0 W/m 12,9 km/h (3 Bft) 100,00 %
12.05.2022 23:00 15,8 C 15,0 C 11,1 C 71 % 1018,6 hPa 0,0 l/m 0 min 0 min 0 W/m 12,9 km/h (3 Bft) 100,00 %
12.05.2022 23:02 15,8 C 15,0 C 11,1 C 71 % 1018,6 hPa 0,0 l/m 0 min 0 min 0 W/m 12,9 km/h (3 Bft) 97,87 %
12.05.2022 23:04 15,7 C 14,4 C 11,1 C 71 % 1018,7 hPa 0,0 l/m 0 min 0 min 0 W/m 6,4 km/h (2 Bft) 100,00 %
12.05.2022 23:06 15,7 C 14,4 C 11,1 C 71 % 1018,7 hPa 0,0 l/m 0 min 0 min 0 W/m 3,2 km/h (1 Bft) 100,00 %
12.05.2022 23:08 15,7 C 14,4 C 11,1 C 71 % 1018,7 hPa 0,0 l/m 0 min 0 min 0 W/m 3,2 km/h (1 Bft) 100,00 %
12.05.2022 23:10 15,7 C 14,4 C 11,1 C 71 % 1018,7 hPa 0,0 l/m 0 min 0 min 0 W/m 3,2 km/h (1 Bft) 97,87 %
12.05.2022 23:12 15,7 C 14,4 C 11,1 C 71 % 1018,7 hPa 0,0 l/m 0 min 0 min 0 W/m 3,2 km/h (1 Bft) 100,00 %
12.05.2022 23:14 15,6 C 14,4 C 11,1 C 71 % 1018,8 hPa 0,0 l/m 0 min 0 min 0 W/m 6,4 km/h (2 Bft) 97,83 %
12.05.2022 23:16 15,6 C 14,4 C 11,1 C 72 % 1018,8 hPa 0,0 l/m 0 min 0 min 0 W/m 6,4 km/h (2 Bft) 97,87 %
12.05.2022 23:18 15,6 C 14,4 C 11,1 C 72 % 1018,8 hPa 0,0 l/m 0 min 0 min 0 W/m 6,4 km/h (2 Bft) 97,87 %
12.05.2022 23:20 15,6 C 14,4 C 11,1 C 72 % 1018,8 hPa 0,0 l/m 0 min 0 min 0 W/m 3,2 km/h (1 Bft) 97,87 %
12.05.2022 23:22 15,6 C 14,4 C 11,1 C 72 % 1018,8 hPa 0,0 l/m 0 min 0 min 0 W/m 6,4 km/h (2 Bft) 97,87 %
12.05.2022 23:25 15,4 C 13,9 C 10,6 C 72 % 1018,8 hPa 0,0 l/m 0 min 0 min 0 W/m 6,4 km/h (2 Bft) 97,14 %
12.05.2022 23:26 15,4 C 13,9 C 10,6 C 72 % 1018,8 hPa 0,0 l/m 0 min 0 min 0 W/m 3,2 km/h (1 Bft) 100,00 %
12.05.2022 23:28 15,4 C 13,9 C 10,6 C 71 % 1018,9 hPa 0,0 l/m 0 min 0 min 0 W/m 6,4 km/h (2 Bft) 97,87 %
12.05.2022 23:30 15,4 C 13,9 C 10,6 C 71 % 1018,9 hPa 0,0 l/m 0 min 0 min 0 W/m 6,4 km/h (2 Bft) 97,87 %
12.05.2022 23:32 15,3 C 13,9 C 10,6 C 71 % 1019,0 hPa 0,0 l/m 0 min 0 min 0 W/m 3,2 km/h (1 Bft) 97,87 %
12.05.2022 23:34 15,3 C 13,9 C 10,6 C 72 % 1019,0 hPa 0,0 l/m 0 min 0 min 0 W/m 3,2 km/h (1 Bft) 95,74 %
12.05.2022 23:36 15,2 C 13,9 C 10,6 C 72 % 1019,0 hPa 0,0 l/m 0 min 0 min 0 W/m 3,2 km/h (1 Bft) 97,87 %
12.05.2022 23:38 15,2 C 13,9 C 10,6 C 72 % 1019,0 hPa 0,0 l/m 0 min 0 min 0 W/m 3,2 km/h (1 Bft) 97,83 %
12.05.2022 23:40 15,2 C 13,9 C 10,6 C 72 % 1019,1 hPa 0,0 l/m 0 min 0 min 0 W/m 3,2 km/h (1 Bft) 97,87 %
12.05.2022 23:42 15,1 C 13,9 C 10,6 C 72 % 1019,1 hPa 0,0 l/m 0 min 0 min 0 W/m 3,2 km/h (1 Bft) 95,74 %
12.05.2022 23:44 15,1 C 13,9 C 10,6 C 72 % 1019,1 hPa 0,0 l/m 0 min 0 min 0 W/m 3,2 km/h (1 Bft) 97,87 %
12.05.2022 23:46 15,0 C 13,9 C 10,6 C 72 % 1019,2 hPa 0,0 l/m 0 min 0 min 0 W/m 3,2 km/h (1 Bft) 91,49 %
12.05.2022 23:48 15,0 C 13,9 C 10,6 C 72 % 1019,1 hPa 0,0 l/m 0 min 0 min 0 W/m 3,2 km/h (1 Bft) 97,87 %
12.05.2022 23:50 14,9 C 13,9 C 10,6 C 73 % 1019,2 hPa 0,0 l/m 0 min 0 min 0 W/m 3,2 km/h (1 Bft) 97,83 %
12.05.2022 23:52 14,9 C 13,9 C 10,6 C 73 % 1019,2 hPa 0,0 l/m 0 min 0 min 0 W/m 0,0 km/h (0 Bft) 97,87 %
12.05.2022 23:54 14,9 C 13,9 C 10,6 C 73 % 1019,2 hPa 0,0 l/m 0 min 0 min 0 W/m 3,2 km/h (1 Bft) 97,87 %
12.05.2022 23:56 14,8 C 13,9 C 10,6 C 73 % 1019,2 hPa 0,0 l/m 0 min 0 min 0 W/m 6,4 km/h (2 Bft) 95,74 %
12.05.2022 23:58 14,8 C 13,3 C 10,6 C 73 % 1019,2 hPa 0,0 l/m 0 min 0 min 0 W/m 3,2 km/h (1 Bft) 100,00 %
_ Min-Zeit 06:08 05:12 05:14 17:48 00:00 - - - - 01:32 03:16
Minimum _ 11,4 C 10,6 C 7,2 C 49 % 1011,1 hPa - - - - 0,0 km/h (0 Bft) 54,55 %
_ Max-Zeit 17:40 17:32 13:44 02:06 10:38 00:32 12:07 00:16 11:48 00:20 00:00
Maximum _ 21,3 C 25,0 C 21,7 C 95 % 1019,7 hPa 0,6 l/m 3 min 2 min 984 W/m 35,4 km/h
N (5 Bft)
100,00 %
Durchschnitt _ 16,9 C 17,2 C 13,2 C 72 % 1017,5 hPa #2,6 l/m #11:00 h #1:22 h 395 W/m 9,6 km/h (2 Bft) 97,58 %
© 2022 W. Hausmann